| time (UTC) | temp C | wind direction | speed KPH | gust KPH | rain 1hr cm | rain 24hr cm | rain mn cm | humidity % | barometer mb |
| 20260506092832 | 23 | 193 | 0.0 | 1.6 | 0.00 | 0.00 | 0.00 | 87 | 999.6 |
| 20260506092732 | 23 | 193 | 0.0 | 1.6 | 0.00 | 0.00 | 0.00 | 87 | 999.5 |
| 20260506092632 | 23 | 193 | 0.0 | 1.6 | 0.00 | 0.00 | 0.00 | 87 | 999.5 |
| 20260506092533 | 23 | 193 | 0.0 | 1.6 | 0.00 | 0.00 | 0.00 | 87 | 999.5 |
| 20260506092431 | 23 | 193 | 0.0 | 1.6 | 0.00 | 0.00 | 0.00 | 87 | 999.6 |
| 20260506092331 | 23 | 193 | 0.0 | 1.6 | 0.00 | 0.00 | 0.00 | 87 | 999.6 |
| 20260506092233 | 23 | 193 | 0.0 | 1.6 | 0.00 | 0.00 | 0.00 | 87 | 999.5 |
| 20260506092131 | 23 | 193 | 0.0 | 1.6 | 0.00 | 0.00 | 0.00 | 87 | 999.6 |
| 20260506092033 | 23 | 193 | 0.0 | 1.6 | 0.00 | 0.00 | 0.00 | 87 | 999.5 |
| 20260506091931 | 23 | 193 | 0.0 | 1.6 | 0.00 | 0.00 | 0.00 | 87 | 999.6 |
| 20260506091832 | 23 | 193 | 0.0 | 1.6 | 0.00 | 0.00 | 0.00 | 87 | 999.6 |
| 20260506091732 | 23 | 193 | 0.0 | 1.6 | 0.00 | 0.00 | 0.00 | 87 | 999.6 |
| 20260506091631 | 23 | 193 | 0.0 | 1.6 | 0.00 | 0.00 | 0.00 | 87 | 999.5 |
| 20260506091531 | 23 | 193 | 0.0 | 1.6 | 0.00 | 0.00 | 0.00 | 87 | 999.5 |
| 20260506091432 | 23 | 193 | 0.0 | 1.6 | 0.00 | 0.00 | 0.00 | 87 | 999.5 |
| 20260506091331 | 23 | 193 | 0.0 | 3.2 | 0.00 | 0.00 | 0.00 | 87 | 999.5 |
| 20260506091233 | 23 | 193 | 0.0 | 3.2 | 0.00 | 0.00 | 0.00 | 87 | 999.5 |
| 20260506091133 | 23 | 193 | 0.0 | 3.2 | 0.00 | 0.00 | 0.00 | 87 | 999.6 |
| 20260506091031 | 23 | 193 | 0.0 | 3.2 | 0.00 | 0.00 | 0.00 | 87 | 999.6 |
| 20260506090931 | 23 | 193 | 0.0 | 3.2 | 0.00 | 0.00 | 0.00 | 87 | 999.6 |
| 20260506090831 | 23 | 165 | 0.0 | 3.2 | 0.00 | 0.00 | 0.00 | 87 | 999.6 |
| 20260506090732 | 23 | 165 | 0.0 | 3.2 | 0.00 | 0.00 | 0.00 | 87 | 999.6 |
| 20260506090631 | 23 | 165 | 0.0 | 3.2 | 0.00 | 0.00 | 0.00 | 87 | 999.6 |
| 20260506090531 | 23 | 165 | 0.0 | 3.2 | 0.00 | 0.00 | 0.00 | 87 | 999.6 |
| 20260506090431 | 23 | 165 | 0.0 | 3.2 | 0.00 | 0.00 | 0.00 | 87 | 999.7 |
| 20260506090333 | 23 | 165 | 0.0 | 3.2 | 0.00 | 0.00 | 0.00 | 87 | 999.5 |
| 20260506090232 | 23 | 165 | 0.0 | 3.2 | 0.00 | 0.00 | 0.00 | 87 | 999.5 |
| 20260506090134 | 23 | 165 | 0.0 | 3.2 | 0.00 | 0.00 | 0.00 | 86 | 999.5 |
| 20260506090033 | 23 | 165 | 0.0 | 3.2 | 0.00 | 0.00 | 0.00 | 86 | 999.5 |
| 20260506085932 | 23 | 165 | 0.0 | 3.2 | 0.00 | 0.00 | 0.00 | 86 | 999.6 |
| 20260506085832 | 23 | 165 | 0.0 | 3.2 | 0.00 | 0.00 | 0.00 | 86 | 999.6 |
| 20260506085733 | 23 | 165 | 0.0 | 3.2 | 0.00 | 0.00 | 0.00 | 86 | 999.5 |
| 20260506085631 | 23 | 165 | 0.0 | 3.2 | 0.00 | 0.00 | 0.00 | 86 | 999.5 |
| 20260506085531 | 23 | 165 | 1.6 | 3.2 | 0.00 | 0.00 | 0.00 | 86 | 999.5 |
| 20260506085433 | 23 | 157 | 0.0 | 3.2 | 0.00 | 0.00 | 0.00 | 86 | 999.5 |
| 20260506085331 | 23 | 290 | 0.0 | 3.2 | 0.00 | 0.00 | 0.00 | 86 | 999.5 |
| 20260506085231 | 23 | 290 | 0.0 | 3.2 | 0.00 | 0.00 | 0.00 | 86 | 999.4 |
| 20260506085131 | 23 | 290 | 0.0 | 3.2 | 0.00 | 0.00 | 0.00 | 86 | 999.4 |
| 20260506085032 | 23 | 290 | 0.0 | 3.2 | 0.00 | 0.00 | 0.00 | 86 | 999.4 |
| 20260506084931 | 23 | 290 | 1.6 | 3.2 | 0.00 | 0.00 | 0.00 | 86 | 999.4 |
| 20260506084833 | 23 | 290 | 1.6 | 3.2 | 0.00 | 0.00 | 0.00 | 86 | 999.5 |
| 20260506084731 | 23 | 290 | 1.6 | 3.2 | 0.00 | 0.00 | 0.00 | 86 | 999.4 |
| 20260506084631 | 23 | 248 | 1.6 | 3.2 | 0.00 | 0.00 | 0.00 | 86 | 999.4 |
| 20260506084531 | 23 | 248 | 0.0 | 3.2 | 0.00 | 0.00 | 0.00 | 86 | 999.4 |
| 20260506084432 | 23 | 252 | 0.0 | 3.2 | 0.00 | 0.00 | 0.00 | 86 | 999.4 |
| 20260506084321 | 23 | 252 | 0.0 | 3.2 | 0.00 | 0.00 | 0.00 | 86 | 999.4 |
| 20260506084213 | 23 | 85 | 0.0 | 3.2 | 0.00 | 0.00 | 0.00 | 86 | 999.4 |
| 20260506084109 | 23 | 89 | 0.0 | 3.2 | 0.00 | 0.00 | 0.00 | 86 | 999.4 |
| 20260506084011 | 23 | 89 | 0.0 | 3.2 | 0.00 | 0.00 | 0.00 | 86 | 999.4 |
| 20260506083906 | 23 | 317 | 0.0 | 3.2 | 0.00 | 0.00 | 0.00 | 86 | 999.4 |
| 20260506083804 | 23 | 317 | 0.0 | 3.2 | 0.00 | 0.00 | 0.00 | 86 | 999.4 |
| 20260506083701 | 23 | 241 | 0.0 | 0.0 | 0.00 | 0.00 | 0.00 | 86 | 999.4 |
| 20260506083601 | 23 | 241 | 0.0 | 1.6 | 0.00 | 0.00 | 0.00 | 86 | 999.3 |
| 20260506083502 | 23 | 241 | 0.0 | 1.6 | 0.00 | 0.00 | 0.00 | 86 | 999.4 |
| 20260506083402 | 23 | 241 | 0.0 | 1.6 | 0.00 | 0.00 | 0.00 | 86 | 999.5 |
| 20260506083304 | 23 | 241 | 0.0 | 1.6 | 0.00 | 0.00 | 0.00 | 86 | 999.5 |
| 20260506083202 | 24 | 241 | 0.0 | 1.6 | 0.00 | 0.00 | 0.00 | 86 | 999.5 |
| 20260506083102 | 24 | 241 | 0.0 | 1.6 | 0.00 | 0.00 | 0.00 | 86 | 999.7 |
| 20260506083002 | 24 | 241 | 0.0 | 1.6 | 0.00 | 0.00 | 0.00 | 86 | 999.6 |
| 20260506082903 | 24 | 241 | 0.0 | 1.6 | 0.00 | 0.00 | 0.00 | 86 | 999.7 |
| 20260506082804 | 24 | 241 | 0.0 | 1.6 | 0.00 | 0.00 | 0.00 | 86 | 999.7 |
| 20260506082704 | 24 | 241 | 0.0 | 1.6 | 0.00 | 0.00 | 0.00 | 86 | 999.7 |
| 20260506082604 | 24 | 241 | 0.0 | 1.6 | 0.00 | 0.00 | 0.00 | 86 | 999.7 |
| 20260506082502 | 24 | 241 | 0.0 | 1.6 | 0.00 | 0.00 | 0.00 | 86 | 999.7 |
| 20260506082403 | 24 | 241 | 0.0 | 1.6 | 0.00 | 0.00 | 0.00 | 86 | 999.7 |
| 20260506082305 | 24 | 241 | 0.0 | 1.6 | 0.00 | 0.00 | 0.00 | 86 | 999.6 |
| 20260506082202 | 24 | 241 | 0.0 | 1.6 | 0.00 | 0.00 | 0.00 | 86 | 999.7 |
| 20260506082102 | 24 | 241 | 0.0 | 1.6 | 0.00 | 0.00 | 0.00 | 86 | 999.7 |
| 20260506082003 | 24 | 241 | 0.0 | 1.6 | 0.00 | 0.00 | 0.00 | 86 | 999.7 |
| 20260506081902 | 24 | 241 | 0.0 | 1.6 | 0.00 | 0.00 | 0.00 | 86 | 999.8 |
| 20260506081802 | 24 | 241 | 0.0 | 1.6 | 0.00 | 0.00 | 0.00 | 86 | 999.6 |
| 20260506081702 | 24 | 241 | 0.0 | 1.6 | 0.00 | 0.00 | 0.00 | 86 | 999.7 |
| 20260506081603 | 24 | 241 | 0.0 | 3.2 | 0.00 | 0.00 | 0.00 | 86 | 999.7 |
| 20260506081503 | 24 | 241 | 0.0 | 3.2 | 0.00 | 0.00 | 0.00 | 86 | 999.7 |
| 20260506081401 | 24 | 241 | 0.0 | 3.2 | 0.00 | 0.00 | 0.00 | 86 | 999.8 |
| 20260506081302 | 24 | 241 | 0.0 | 3.2 | 0.00 | 0.00 | 0.00 | 86 | 999.7 |
| 20260506081202 | 24 | 241 | 0.0 | 3.2 | 0.00 | 0.00 | 0.00 | 86 | 999.7 |
| 20260506081102 | 24 | 241 | 0.0 | 3.2 | 0.00 | 0.00 | 0.00 | 86 | 999.7 |
| 20260506081002 | 24 | 241 | 0.0 | 3.2 | 0.00 | 0.00 | 0.00 | 86 | 999.7 |
| 20260506080904 | 24 | 241 | 0.0 | 3.2 | 0.00 | 0.00 | 0.00 | 86 | 999.7 |
| 20260506080802 | 24 | 230 | 0.0 | 3.2 | 0.00 | 0.00 | 0.00 | 86 | 999.7 |
| 20260506080702 | 24 | 230 | 1.6 | 3.2 | 0.00 | 0.00 | 0.00 | 86 | 999.7 |
| 20260506080603 | 24 | 230 | 0.0 | 1.6 | 0.00 | 0.00 | 0.00 | 86 | 999.7 |
| 20260506080503 | 24 | 227 | 0.0 | 1.6 | 0.00 | 0.00 | 0.00 | 86 | 999.7 |
| 20260506080402 | 24 | 227 | 0.0 | 1.6 | 0.00 | 0.00 | 0.00 | 86 | 999.7 |
| 20260506080303 | 24 | 250 | 0.0 | 1.6 | 0.00 | 0.00 | 0.00 | 86 | 999.7 |
| 20260506080202 | 24 | 250 | 0.0 | 1.6 | 0.00 | 0.00 | 0.00 | 86 | 999.8 |
| 20260506073503 | 24 | 329 | 0.0 | 0.0 | 0.00 | 0.00 | 0.00 | 86 | 1000.4 |
| 20260506073402 | 24 | 329 | 0.0 | 0.0 | 0.00 | 0.00 | 0.00 | 86 | 1000.5 |
| 20260506073302 | 24 | 329 | 0.0 | 0.0 | 0.00 | 0.00 | 0.00 | 86 | 1000.5 |
| 20260506073203 | 24 | 347 | 0.0 | 0.0 | 0.00 | 0.00 | 0.00 | 86 | 1000.4 |
| 20260506073102 | 24 | 347 | 0.0 | 0.0 | 0.00 | 0.00 | 0.00 | 86 | 1000.3 |
| 20260506073001 | 24 | 347 | 0.0 | 0.0 | 0.00 | 0.00 | 0.00 | 86 | 1000.4 |
| 20260506072902 | 24 | 347 | 0.0 | 0.0 | 0.00 | 0.00 | 0.00 | 86 | 1000.4 |
| 20260506072803 | 24 | 347 | 0.0 | 0.0 | 0.00 | 0.00 | 0.00 | 86 | 1000.4 |
| 20260506072703 | 24 | 0 | 0.0 | 0.0 | 0.00 | 0.00 | 0.00 | 86 | 1000.3 |
| 20260506072603 | 24 | 0 | 0.0 | 0.0 | 0.00 | 0.00 | 0.00 | 86 | 1000.4 |
| 20260506072503 | 24 | 0 | 0.0 | 0.0 | 0.00 | 0.00 | 0.00 | 86 | 1000.4 |
| 20260506072402 | 24 | 24 | 0.0 | 0.0 | 0.00 | 0.00 | 0.00 | 86 | 1000.5 |
| 20260506072306 | 24 | 24 | 0.0 | 0.0 | 0.00 | 0.00 | 0.00 | 86 | 1000.4 |
| 20260506072202 | 24 | 24 | 0.0 | 0.0 | 0.00 | 0.00 | 0.00 | 86 | 1000.4 |
| 20260506072103 | 24 | 258 | 0.0 | 0.0 | 0.00 | 0.00 | 0.00 | 86 | 1000.5 |
| 20260506072002 | 24 | 258 | 0.0 | 0.0 | 0.00 | 0.00 | 0.00 | 86 | 1000.5 |
| 20260506071903 | 24 | 258 | 0.0 | 0.0 | 0.00 | 0.00 | 0.00 | 86 | 1000.5 |
| 20260506071803 | 24 | 258 | 0.0 | 0.0 | 0.00 | 0.00 | 0.00 | 86 | 1000.6 |
| 20260506071702 | 24 | 258 | 0.0 | 0.0 | 0.00 | 0.00 | 0.00 | 86 | 1000.6 |
| 20260506071602 | 24 | 173 | 0.0 | 0.0 | 0.00 | 0.00 | 0.00 | 86 | 1000.5 |
| 20260506071504 | 24 | 180 | 0.0 | 0.0 | 0.00 | 0.00 | 0.00 | 86 | 1000.6 |
| 20260506071403 | 24 | 180 | 0.0 | 0.0 | 0.00 | 0.00 | 0.00 | 86 | 1000.6 |
| 20260506071302 | 24 | 180 | 0.0 | 0.0 | 0.00 | 0.00 | 0.00 | 86 | 1000.6 |
| 20260506071202 | 24 | 168 | 0.0 | 0.0 | 0.00 | 0.00 | 0.00 | 86 | 1000.6 |
| 20260506071103 | 24 | 168 | 0.0 | 0.0 | 0.00 | 0.00 | 0.00 | 86 | 1000.6 |
| 20260506071002 | 24 | 168 | 0.0 | 0.0 | 0.00 | 0.00 | 0.00 | 86 | 1000.7 |
| 20260506070903 | 24 | 168 | 0.0 | 0.0 | 0.00 | 0.00 | 0.00 | 86 | 1000.7 |
| 20260506070803 | 24 | 168 | 0.0 | 0.0 | 0.00 | 0.00 | 0.00 | 86 | 1000.7 |
| 20260506070703 | 24 | 168 | 0.0 | 0.0 | 0.00 | 0.00 | 0.00 | 86 | 1000.8 |
| 20260506070603 | 24 | 168 | 0.0 | 0.0 | 0.00 | 0.00 | 0.00 | 86 | 1000.8 |
| 20260506070502 | 24 | 168 | 0.0 | 1.6 | 0.00 | 0.00 | 0.00 | 86 | 1000.8 |
| 20260506070403 | 24 | 168 | 0.0 | 1.6 | 0.00 | 0.00 | 0.00 | 86 | 1000.8 |
| 20260506070303 | 24 | 168 | 0.0 | 1.6 | 0.00 | 0.00 | 0.00 | 86 | 1000.7 |
| 20260506070204 | 24 | 168 | 0.0 | 1.6 | 0.00 | 0.00 | 0.00 | 86 | 1000.7 |
| 20260506070103 | 24 | 168 | 0.0 | 1.6 | 0.00 | 0.00 | 0.00 | 86 | 1000.8 |
| 20260506062429 | 24 | 102 | 0.0 | 1.6 | 0.00 | 0.00 | 0.00 | 86 | 1000.8 |
| 20260506062331 | 24 | 102 | 0.0 | 1.6 | 0.00 | 0.00 | 0.00 | 86 | 1000.8 |
| 20260506062230 | 24 | 102 | 0.0 | 1.6 | 0.00 | 0.00 | 0.00 | 86 | 1000.8 |
| 20260506062130 | 24 | 102 | 0.0 | 3.2 | 0.00 | 0.00 | 0.00 | 86 | 1000.9 |
| 20260506062031 | 24 | 102 | 0.0 | 3.2 | 0.00 | 0.00 | 0.00 | 86 | 1000.9 |
| 20260506061930 | 24 | 102 | 0.0 | 3.2 | 0.00 | 0.00 | 0.00 | 86 | 1000.9 |
| 20260506061830 | 24 | 102 | 0.0 | 3.2 | 0.00 | 0.00 | 0.00 | 86 | 1000.9 |
| 20260506061730 | 24 | 102 | 0.0 | 3.2 | 0.00 | 0.00 | 0.00 | 86 | 1000.8 |
| 20260506061630 | 24 | 102 | 0.0 | 3.2 | 0.00 | 0.00 | 0.00 | 86 | 1000.8 |
| 20260506061532 | 24 | 102 | 0.0 | 3.2 | 0.00 | 0.00 | 0.00 | 86 | 1000.8 |
| 20260506061431 | 24 | 104 | 0.0 | 3.2 | 0.00 | 0.00 | 0.00 | 86 | 1000.9 |
| 20260506061330 | 24 | 104 | 0.0 | 3.2 | 0.00 | 0.00 | 0.00 | 86 | 1000.9 |
| 20260506061232 | 24 | 103 | 1.6 | 3.2 | 0.00 | 0.00 | 0.00 | 85 | 1000.8 |
| 20260506061131 | 24 | 72 | 0.0 | 3.2 | 0.00 | 0.00 | 0.00 | 85 | 1000.8 |
| 20260506061031 | 24 | 216 | 0.0 | 1.6 | 0.00 | 0.00 | 0.00 | 85 | 1000.8 |
| 20260506060931 | 24 | 216 | 0.0 | 1.6 | 0.00 | 0.00 | 0.00 | 85 | 1000.9 |
| 20260506060829 | 24 | 216 | 0.0 | 1.6 | 0.00 | 0.00 | 0.00 | 85 | 1000.8 |
| 20260506060729 | 24 | 216 | 0.0 | 1.6 | 0.00 | 0.00 | 0.00 | 85 | 1000.8 |
| 20260506060630 | 24 | 252 | 0.0 | 1.6 | 0.00 | 0.00 | 0.00 | 85 | 1000.8 |
| 20260506060530 | 24 | 252 | 0.0 | 1.6 | 0.00 | 0.00 | 0.00 | 85 | 1000.8 |
| 20260506060430 | 24 | 252 | 0.0 | 1.6 | 0.00 | 0.00 | 0.00 | 85 | 1000.8 |
| 20260506060331 | 24 | 252 | 0.0 | 3.2 | 0.00 | 0.00 | 0.00 | 85 | 1000.8 |
| 20260506060232 | 24 | 252 | 0.0 | 3.2 | 0.00 | 0.00 | 0.00 | 85 | 1000.8 |
| 20260506060132 | 24 | 252 | 0.0 | 3.2 | 0.00 | 0.00 | 0.00 | 85 | 1000.8 |
| 20260506051316 | 25 | 324 | 0.0 | 4.8 | 0.00 | 0.00 | 0.00 | 85 | 1000.7 |
| 20260506051215 | 25 | 324 | 0.0 | 4.8 | 0.00 | 0.00 | 0.00 | 85 | 1000.7 |
| 20260506051111 | 25 | 324 | 1.6 | 4.8 | 0.00 | 0.00 | 0.00 | 85 | 1000.6 |
| 20260506051009 | 25 | 324 | 1.6 | 4.8 | 0.00 | 0.00 | 0.00 | 85 | 1000.6 |
| 20260506050908 | 25 | 268 | 0.0 | 3.2 | 0.00 | 0.00 | 0.00 | 85 | 1000.6 |
| 20260506050807 | 25 | 268 | 0.0 | 3.2 | 0.00 | 0.00 | 0.00 | 85 | 1000.6 |
| 20260506050705 | 25 | 268 | 0.0 | 3.2 | 0.00 | 0.00 | 0.00 | 85 | 1000.6 |
| 20260506050603 | 25 | 268 | 0.0 | 3.2 | 0.00 | 0.00 | 0.00 | 85 | 1000.6 |
| 20260506050503 | 25 | 268 | 0.0 | 3.2 | 0.00 | 0.00 | 0.00 | 85 | 1000.5 |
| 20260506050401 | 25 | 268 | 0.0 | 3.2 | 0.00 | 0.00 | 0.00 | 84 | 1000.5 |
| 20260506050302 | 25 | 268 | 0.0 | 3.2 | 0.00 | 0.00 | 0.00 | 84 | 1000.5 |
| 20260506050204 | 25 | 264 | 0.0 | 3.2 | 0.00 | 0.00 | 0.00 | 85 | 1000.4 |
| 20260506050105 | 25 | 264 | 0.0 | 3.2 | 0.00 | 0.00 | 0.00 | 84 | 1000.5 |
| 20260506045102 | 25 | 265 | 1.6 | 4.8 | 0.00 | 0.00 | 0.00 | 84 | 1000.6 |
| 20260506045005 | 25 | 265 | 1.6 | 4.8 | 0.00 | 0.00 | 0.00 | 84 | 1000.6 |
| 20260506044903 | 25 | 299 | 0.0 | 4.8 | 0.00 | 0.00 | 0.00 | 84 | 1000.6 |
| 20260506044802 | 25 | 299 | 0.0 | 4.8 | 0.00 | 0.00 | 0.00 | 84 | 1000.6 |
| 20260506044703 | 25 | 299 | 1.6 | 4.8 | 0.00 | 0.00 | 0.00 | 84 | 1000.6 |
| 20260506044603 | 25 | 358 | 1.6 | 4.8 | 0.00 | 0.00 | 0.00 | 84 | 1000.7 |
| 20260506044504 | 25 | 0 | 0.0 | 4.8 | 0.00 | 0.00 | 0.00 | 84 | 1000.7 |
| 20260506044402 | 25 | 279 | 0.0 | 3.2 | 0.00 | 0.00 | 0.00 | 84 | 1000.7 |
| 20260506044303 | 25 | 279 | 0.0 | 3.2 | 0.00 | 0.00 | 0.00 | 84 | 1000.6 |
| 20260506044204 | 25 | 279 | 0.0 | 3.2 | 0.00 | 0.00 | 0.00 | 84 | 1000.6 |
| 20260506044104 | 25 | 279 | 0.0 | 3.2 | 0.00 | 0.00 | 0.00 | 84 | 1000.6 |
| 20260506044004 | 25 | 279 | 0.0 | 3.2 | 0.00 | 0.00 | 0.00 | 84 | 1000.6 |
| 20260506043905 | 25 | 279 | 0.0 | 3.2 | 0.00 | 0.00 | 0.00 | 84 | 1000.6 |
| 20260506043803 | 25 | 279 | 0.0 | 3.2 | 0.00 | 0.00 | 0.00 | 84 | 1000.6 |
| 20260506043703 | 25 | 279 | 0.0 | 3.2 | 0.00 | 0.00 | 0.00 | 84 | 1000.5 |
| 20260506043604 | 25 | 255 | 0.0 | 6.4 | 0.00 | 0.00 | 0.00 | 84 | 1000.5 |
| 20260506043504 | 25 | 255 | 0.0 | 6.4 | 0.00 | 0.00 | 0.00 | 84 | 1000.5 |
| 20260506043405 | 25 | 265 | 0.0 | 6.4 | 0.00 | 0.00 | 0.00 | 84 | 1000.5 |
| 20260506043305 | 25 | 265 | 1.6 | 6.4 | 0.00 | 0.00 | 0.00 | 84 | 1000.4 |
| 20260506043203 | 25 | 265 | 0.0 | 6.4 | 0.00 | 0.00 | 0.00 | 84 | 1000.4 |
| 20260506043102 | 25 | 255 | 0.0 | 6.4 | 0.00 | 0.00 | 0.00 | 84 | 1000.4 |
| 20260506043004 | 25 | 255 | 0.0 | 6.4 | 0.00 | 0.00 | 0.00 | 84 | 1000.5 |
| 20260506042903 | 25 | 255 | 0.0 | 6.4 | 0.00 | 0.00 | 0.00 | 84 | 1000.4 |
| 20260506042803 | 25 | 255 | 1.6 | 6.4 | 0.00 | 0.00 | 0.00 | 84 | 1000.4 |
| 20260506042703 | 25 | 254 | 1.6 | 6.4 | 0.00 | 0.00 | 0.00 | 84 | 1000.4 |
| 20260506042603 | 25 | 303 | 0.0 | 3.2 | 0.00 | 0.00 | 0.00 | 84 | 1000.5 |
| 20260506042505 | 25 | 303 | 0.0 | 3.2 | 0.00 | 0.00 | 0.00 | 84 | 1000.4 |
| 20260506042404 | 25 | 306 | 0.0 | 3.2 | 0.00 | 0.00 | 0.00 | 84 | 1000.4 |
| 20260506042305 | 25 | 305 | 0.0 | 3.2 | 0.00 | 0.00 | 0.00 | 84 | 1000.4 |
| 20260506042202 | 25 | 305 | 0.0 | 3.2 | 0.00 | 0.00 | 0.00 | 84 | 1000.4 |
| 20260506042104 | 25 | 305 | 0.0 | 3.2 | 0.00 | 0.00 | 0.00 | 84 | 1000.5 |
| 20260506042005 | 25 | 306 | 0.0 | 3.2 | 0.00 | 0.00 | 0.00 | 84 | 1000.5 |
| 20260506041905 | 25 | 305 | 0.0 | 3.2 | 0.00 | 0.00 | 0.00 | 84 | 1000.4 |
| 20260506041758 | 25 | 305 | 1.6 | 3.2 | 0.00 | 0.00 | 0.00 | 84 | 1000.4 |
| 20260506041653 | 25 | 305 | 0.0 | 3.2 | 0.00 | 0.00 | 0.00 | 84 | 1000.4 |
| 20260506041551 | 25 | 250 | 0.0 | 3.2 | 0.00 | 0.00 | 0.00 | 84 | 1000.5 |
| 20260506041453 | 25 | 250 | 0.0 | 3.2 | 0.00 | 0.00 | 0.00 | 84 | 1000.4 |
| 20260506041339 | 25 | 250 | 0.0 | 3.2 | 0.00 | 0.00 | 0.00 | 84 | 1000.4 |
| 20260506041239 | 25 | 248 | 0.0 | 4.8 | 0.00 | 0.00 | 0.00 | 84 | 1000.5 |
| 20260506041130 | 25 | 248 | 0.0 | 4.8 | 0.00 | 0.00 | 0.00 | 84 | 1000.5 |
| 20260506041028 | 25 | 248 | 1.6 | 4.8 | 0.00 | 0.00 | 0.00 | 84 | 1000.4 |
| 20260506040927 | 25 | 248 | 1.6 | 4.8 | 0.00 | 0.00 | 0.00 | 84 | 1000.5 |
| 20260506040827 | 25 | 341 | 0.0 | 4.8 | 0.00 | 0.00 | 0.00 | 84 | 1000.5 |
| 20260506040728 | 25 | 341 | 0.0 | 4.8 | 0.00 | 0.00 | 0.00 | 84 | 1000.6 |
| 20260506040626 | 25 | 341 | 0.0 | 4.8 | 0.00 | 0.00 | 0.00 | 84 | 1000.6 |
| 20260506040528 | 25 | 341 | 1.6 | 4.8 | 0.00 | 0.00 | 0.00 | 84 | 1000.6 |
| 20260506040426 | 25 | 341 | 1.6 | 4.8 | 0.00 | 0.00 | 0.00 | 84 | 1000.6 |
| 20260506040326 | 25 | 345 | 1.6 | 4.8 | 0.00 | 0.00 | 0.00 | 84 | 1000.6 |
| 20260506040226 | 25 | 151 | 0.0 | 1.6 | 0.00 | 0.00 | 0.00 | 84 | 1000.7 |
| 20260506040127 | 25 | 151 | 0.0 | 1.6 | 0.00 | 0.00 | 0.00 | 84 | 1000.6 |
| 20260506040026 | 25 | 151 | 0.0 | 1.6 | 0.00 | 0.00 | 0.00 | 84 | 1000.7 |
| 20260506035927 | 25 | 151 | 0.0 | 1.6 | 0.00 | 0.00 | 0.00 | 84 | 1000.7 |
| 20260506035828 | 25 | 151 | 0.0 | 1.6 | 0.00 | 0.00 | 0.00 | 83 | 1000.6 |
| 20260506035727 | 25 | 151 | 0.0 | 1.6 | 0.00 | 0.00 | 0.00 | 83 | 1000.7 |
| 20260506035626 | 25 | 151 | 0.0 | 1.6 | 0.00 | 0.00 | 0.00 | 83 | 1000.6 |
| 20260506035527 | 25 | 151 | 0.0 | 1.6 | 0.00 | 0.00 | 0.00 | 83 | 1000.6 |
| 20260506035426 | 25 | 151 | 0.0 | 1.6 | 0.00 | 0.00 | 0.00 | 83 | 1000.5 |
| 20260506035327 | 25 | 151 | 0.0 | 1.6 | 0.00 | 0.00 | 0.00 | 83 | 1000.6 |
| 20260506035228 | 25 | 151 | 0.0 | 1.6 | 0.00 | 0.00 | 0.00 | 83 | 1000.5 |
| 20260506035127 | 25 | 151 | 0.0 | 1.6 | 0.00 | 0.00 | 0.00 | 83 | 1000.5 |
| 20260506035028 | 25 | 151 | 0.0 | 3.2 | 0.00 | 0.00 | 0.00 | 83 | 1000.4 |
| 20260506034926 | 25 | 151 | 0.0 | 3.2 | 0.00 | 0.00 | 0.00 | 83 | 1000.4 |
| 20260506034827 | 25 | 151 | 0.0 | 3.2 | 0.00 | 0.00 | 0.00 | 83 | 1000.4 |
| 20260506034728 | 25 | 151 | 0.0 | 3.2 | 0.00 | 0.00 | 0.00 | 83 | 1000.3 |
| 20260506034626 | 25 | 151 | 0.0 | 3.2 | 0.00 | 0.00 | 0.00 | 83 | 1000.4 |
| 20260506034527 | 25 | 151 | 0.0 | 3.2 | 0.00 | 0.00 | 0.00 | 83 | 1000.3 |
| 20260506034427 | 25 | 151 | 0.0 | 3.2 | 0.00 | 0.00 | 0.00 | 83 | 1000.3 |
| 20260506034326 | 25 | 151 | 0.0 | 3.2 | 0.00 | 0.00 | 0.00 | 83 | 1000.3 |
| 20260506034226 | 25 | 151 | 0.0 | 3.2 | 0.00 | 0.00 | 0.00 | 83 | 1000.3 |
| 20260506034128 | 25 | 151 | 0.0 | 3.2 | 0.00 | 0.00 | 0.00 | 83 | 1000.3 |
| 20260506034026 | 25 | 128 | 0.0 | 1.6 | 0.00 | 0.00 | 0.00 | 83 | 1000.3 |
| 20260506033926 | 25 | 128 | 0.0 | 1.6 | 0.00 | 0.00 | 0.00 | 83 | 1000.3 |
| 20260506033826 | 25 | 237 | 0.0 | 1.6 | 0.00 | 0.00 | 0.00 | 83 | 1000.3 |
| 20260506033726 | 25 | 237 | 0.0 | 1.6 | 0.00 | 0.00 | 0.00 | 83 | 1000.3 |
| 20260506033627 | 25 | 237 | 0.0 | 1.6 | 0.00 | 0.00 | 0.00 | 83 | 1000.3 |
| 20260506033527 | 25 | 237 | 0.0 | 1.6 | 0.00 | 0.00 | 0.00 | 83 | 1000.4 |
| 20260506033426 | 25 | 237 | 0.0 | 1.6 | 0.00 | 0.00 | 0.00 | 83 | 1000.3 |
| 20260506033327 | 25 | 251 | 0.0 | 1.6 | 0.00 | 0.00 | 0.00 | 83 | 1000.3 |
| 20260506033226 | 25 | 251 | 0.0 | 1.6 | 0.00 | 0.00 | 0.00 | 83 | 1000.2 |
| 20260506033127 | 25 | 28 | 0.0 | 1.6 | 0.00 | 0.00 | 0.00 | 83 | 1000.3 |
| 20260506033027 | 25 | 28 | 0.0 | 1.6 | 0.00 | 0.00 | 0.00 | 83 | 1000.2 |
| 20260506032927 | 25 | 28 | 0.0 | 1.6 | 0.00 | 0.00 | 0.00 | 83 | 1000.3 |
| 20260506032827 | 25 | 28 | 0.0 | 1.6 | 0.00 | 0.00 | 0.00 | 83 | 1000.3 |
| 20260506032725 | 25 | 340 | 0.0 | 1.6 | 0.00 | 0.00 | 0.00 | 83 | 1000.3 |
| 20260506032625 | 25 | 340 | 0.0 | 1.6 | 0.00 | 0.00 | 0.00 | 83 | 1000.3 |
| 20260506032526 | 25 | 340 | 0.0 | 1.6 | 0.00 | 0.00 | 0.00 | 83 | 1000.2 |
| 20260506032427 | 25 | 340 | 0.0 | 1.6 | 0.00 | 0.00 | 0.00 | 83 | 1000.2 |
| 20260506032326 | 25 | 340 | 0.0 | 1.6 | 0.00 | 0.00 | 0.00 | 83 | 1000.1 |
| 20260506032225 | 25 | 341 | 0.0 | 1.6 | 0.00 | 0.00 | 0.00 | 83 | 1000.2 |
| 20260506032126 | 25 | 341 | 0.0 | 0.0 | 0.00 | 0.00 | 0.00 | 83 | 1000.1 |
| 20260506032026 | 25 | 341 | 0.0 | 1.6 | 0.00 | 0.00 | 0.00 | 83 | 1000.1 |
| 20260506031927 | 25 | 341 | 0.0 | 1.6 | 0.00 | 0.00 | 0.00 | 83 | 1000.1 |
| 20260506031825 | 25 | 341 | 0.0 | 1.6 | 0.00 | 0.00 | 0.00 | 83 | 1000.1 |
| 20260506031726 | 25 | 341 | 0.0 | 1.6 | 0.00 | 0.00 | 0.00 | 83 | 1000.1 |
| 20260506031625 | 25 | 341 | 0.0 | 1.6 | 0.00 | 0.00 | 0.00 | 83 | 1000.1 |
| 20260506031525 | 25 | 341 | 0.0 | 1.6 | 0.00 | 0.00 | 0.00 | 82 | 1000.1 |
| 20260506031427 | 25 | 341 | 0.0 | 1.6 | 0.00 | 0.00 | 0.00 | 82 | 1000.1 |
| 20260506031321 | 25 | 341 | 0.0 | 1.6 | 0.00 | 0.00 | 0.00 | 82 | 1000.0 |
| 20260506031215 | 25 | 341 | 0.0 | 1.6 | 0.00 | 0.00 | 0.00 | 82 | 1000.1 |
| 20260506031113 | 25 | 341 | 0.0 | 1.6 | 0.00 | 0.00 | 0.00 | 82 | 1000.1 |
| 20260506031009 | 25 | 341 | 0.0 | 0.0 | 0.00 | 0.00 | 0.00 | 82 | 1000.1 |
| 20260506030910 | 25 | 341 | 0.0 | 0.0 | 0.00 | 0.00 | 0.00 | 82 | 1000.1 |
| 20260506030810 | 25 | 341 | 0.0 | 0.0 | 0.00 | 0.00 | 0.00 | 82 | 1000.1 |
| 20260506030710 | 25 | 341 | 0.0 | 0.0 | 0.00 | 0.00 | 0.00 | 82 | 1000.1 |
| 20260506030606 | 25 | 341 | 0.0 | 0.0 | 0.00 | 0.00 | 0.00 | 82 | 1000.1 |
| 20260506030503 | 25 | 341 | 0.0 | 0.0 | 0.00 | 0.00 | 0.00 | 82 | 1000.2 |
| 20260506030403 | 25 | 341 | 0.0 | 0.0 | 0.00 | 0.00 | 0.00 | 82 | 1000.1 |
| 20260506030302 | 25 | 341 | 0.0 | 0.0 | 0.00 | 0.00 | 0.00 | 82 | 1000.2 |
| 20260506030202 | 25 | 341 | 0.0 | 0.0 | 0.00 | 0.00 | 0.00 | 82 | 1000.2 |
| 20260506030103 | 25 | 341 | 0.0 | 0.0 | 0.00 | 0.00 | 0.00 | 82 | 1000.1 |
| 20260506030003 | 25 | 341 | 0.0 | 0.0 | 0.00 | 0.00 | 0.00 | 82 | 1000.1 |
| 20260506025902 | 25 | 341 | 0.0 | 0.0 | 0.00 | 0.00 | 0.00 | 82 | 1000.1 |
| 20260506025803 | 25 | 341 | 0.0 | 0.0 | 0.00 | 0.00 | 0.00 | 82 | 1000.2 |
| 20260506025702 | 25 | 341 | 0.0 | 0.0 | 0.00 | 0.00 | 0.00 | 82 | 1000.1 |
| 20260506025604 | 25 | 341 | 0.0 | 0.0 | 0.00 | 0.00 | 0.00 | 82 | 1000.1 |
| 20260506025503 | 25 | 341 | 0.0 | 0.0 | 0.00 | 0.00 | 0.00 | 82 | 1000.0 |
| 20260506025404 | 25 | 341 | 0.0 | 0.0 | 0.00 | 0.00 | 0.00 | 82 | 1000.0 |
| 20260506025253 | 25 | 341 | 0.0 | 0.0 | 0.00 | 0.00 | 0.00 | 82 | 999.9 |
| 20260506025154 | 25 | 341 | 0.0 | 0.0 | 0.00 | 0.00 | 0.00 | 82 | 1000.0 |
| 20260506025055 | 25 | 341 | 0.0 | 1.6 | 0.00 | 0.00 | 0.00 | 82 | 999.9 |
| 20260506024948 | 25 | 341 | 0.0 | 1.6 | 0.00 | 0.00 | 0.00 | 82 | 999.9 |
| 20260506024836 | 25 | 341 | 0.0 | 1.6 | 0.00 | 0.00 | 0.00 | 82 | 999.9 |
| 20260506024730 | 25 | 341 | 0.0 | 1.6 | 0.00 | 0.00 | 0.00 | 82 | 999.9 |
| 20260506024632 | 25 | 341 | 0.0 | 1.6 | 0.00 | 0.00 | 0.00 | 82 | 999.9 |
| 20260506024531 | 25 | 341 | 0.0 | 1.6 | 0.00 | 0.00 | 0.00 | 82 | 999.8 |
| 20260506024426 | 25 | 341 | 0.0 | 1.6 | 0.00 | 0.00 | 0.00 | 82 | 999.8 |
| 20260506024326 | 25 | 341 | 0.0 | 1.6 | 0.00 | 0.00 | 0.00 | 82 | 999.7 |
| 20260506024226 | 25 | 341 | 0.0 | 1.6 | 0.00 | 0.00 | 0.00 | 82 | 999.8 |
| 20260506024124 | 25 | 341 | 0.0 | 1.6 | 0.00 | 0.00 | 0.00 | 82 | 999.7 |
| 20260506024025 | 25 | 341 | 0.0 | 1.6 | 0.00 | 0.00 | 0.00 | 82 | 999.7 |
| 20260506023925 | 25 | 341 | 0.0 | 1.6 | 0.00 | 0.00 | 0.00 | 82 | 999.7 |
| 20260506023826 | 25 | 341 | 0.0 | 1.6 | 0.00 | 0.00 | 0.00 | 82 | 999.7 |
| 20260506023726 | 25 | 341 | 0.0 | 1.6 | 0.00 | 0.00 | 0.00 | 82 | 999.7 |
| 20260506023625 | 25 | 341 | 0.0 | 1.6 | 0.00 | 0.00 | 0.00 | 82 | 999.7 |
| 20260506023525 | 25 | 341 | 0.0 | 1.6 | 0.00 | 0.00 | 0.00 | 82 | 999.7 |
| 20260506023424 | 25 | 341 | 0.0 | 1.6 | 0.00 | 0.00 | 0.00 | 82 | 999.7 |
| 20260506023325 | 25 | 341 | 0.0 | 0.0 | 0.00 | 0.00 | 0.00 | 82 | 999.6 |
| 20260506023224 | 25 | 341 | 0.0 | 0.0 | 0.00 | 0.00 | 0.00 | 82 | 999.6 |
| 20260506023127 | 25 | 341 | 0.0 | 0.0 | 0.00 | 0.00 | 0.00 | 82 | 999.6 |
| 20260506023024 | 25 | 341 | 0.0 | 0.0 | 0.00 | 0.00 | 0.00 | 82 | 999.5 |
| 20260506022925 | 25 | 341 | 0.0 | 0.0 | 0.00 | 0.00 | 0.00 | 82 | 999.5 |
| 20260506022824 | 25 | 341 | 0.0 | 0.0 | 0.00 | 0.00 | 0.00 | 82 | 999.4 |
| 20260506022726 | 25 | 341 | 0.0 | 0.0 | 0.00 | 0.00 | 0.00 | 82 | 999.4 |
| 20260506022627 | 25 | 0 | 0.0 | 0.0 | 0.00 | 0.00 | 0.00 | 82 | 999.5 |
| 20260506022524 | 25 | 0 | 0.0 | 0.0 | 0.00 | 0.00 | 0.00 | 82 | 999.4 |
| 20260506022424 | 25 | 0 | 0.0 | 0.0 | 0.00 | 0.00 | 0.00 | 82 | 999.4 |
| 20260506022325 | 25 | 0 | 0.0 | 0.0 | 0.00 | 0.00 | 0.00 | 82 | 999.4 |
| 20260506022225 | 25 | 0 | 0.0 | 0.0 | 0.00 | 0.00 | 0.00 | 82 | 999.4 |
| 20260506022124 | 25 | 0 | 0.0 | 0.0 | 0.00 | 0.00 | 0.00 | 82 | 999.4 |
| 20260506022024 | 25 | 0 | 0.0 | 0.0 | 0.00 | 0.00 | 0.00 | 82 | 999.4 |
| 20260506021924 | 25 | 0 | 0.0 | 1.6 | 0.00 | 0.00 | 0.00 | 82 | 999.4 |
| 20260506021824 | 25 | 0 | 0.0 | 1.6 | 0.00 | 0.00 | 0.00 | 82 | 999.4 |
| 20260506021724 | 25 | 0 | 0.0 | 1.6 | 0.00 | 0.00 | 0.00 | 82 | 999.4 |
| 20260506021624 | 25 | 0 | 0.0 | 1.6 | 0.00 | 0.00 | 0.00 | 82 | 999.4 |
| 20260506021525 | 25 | 0 | 0.0 | 1.6 | 0.00 | 0.00 | 0.00 | 82 | 999.3 |
| 20260506021424 | 25 | 0 | 0.0 | 1.6 | 0.00 | 0.00 | 0.00 | 82 | 999.4 |
| 20260506021325 | 25 | 0 | 0.0 | 1.6 | 0.00 | 0.00 | 0.00 | 82 | 999.3 |
| 20260506021225 | 25 | 0 | 0.0 | 1.6 | 0.00 | 0.00 | 0.00 | 82 | 999.2 |
| 20260506021125 | 25 | 0 | 0.0 | 1.6 | 0.00 | 0.00 | 0.00 | 82 | 999.3 |
| 20260506021024 | 25 | 0 | 0.0 | 1.6 | 0.00 | 0.00 | 0.00 | 82 | 999.3 |
| 20260506020926 | 25 | 0 | 0.0 | 1.6 | 0.00 | 0.00 | 0.00 | 82 | 999.2 |
| 20260506020824 | 25 | 0 | 0.0 | 1.6 | 0.00 | 0.00 | 0.00 | 82 | 999.2 |
| 20260506020725 | 25 | 0 | 0.0 | 1.6 | 0.00 | 0.00 | 0.00 | 82 | 999.3 |
| 20260506020625 | 25 | 0 | 0.0 | 3.2 | 0.00 | 0.00 | 0.00 | 81 | 999.2 |
| 20260506020524 | 25 | 0 | 0.0 | 3.2 | 0.00 | 0.00 | 0.00 | 81 | 999.2 |
| 20260506020425 | 25 | 0 | 0.0 | 3.2 | 0.00 | 0.00 | 0.00 | 81 | 999.2 |
| 20260506020325 | 25 | 0 | 0.0 | 3.2 | 0.00 | 0.00 | 0.00 | 81 | 999.3 |
| 20260506020224 | 25 | 10 | 0.0 | 3.2 | 0.00 | 0.00 | 0.00 | 81 | 999.2 |
| 20260506020125 | 25 | 10 | 0.0 | 3.2 | 0.00 | 0.00 | 0.00 | 81 | 999.2 |
| 20260506020026 | 25 | 10 | 0.0 | 3.2 | 0.00 | 0.00 | 0.00 | 81 | 999.2 |
| 20260506015925 | 25 | 10 | 0.0 | 3.2 | 0.00 | 0.00 | 0.00 | 81 | 999.2 |
| 20260506015823 | 25 | 10 | 0.0 | 3.2 | 0.00 | 0.00 | 0.00 | 81 | 999.2 |
| 20260506015724 | 25 | 10 | 0.0 | 3.2 | 0.00 | 0.00 | 0.00 | 81 | 999.2 |
| 20260506015624 | 25 | 305 | 0.0 | 3.2 | 0.00 | 0.00 | 0.00 | 81 | 999.2 |
| 20260506015523 | 25 | 224 | 0.0 | 3.2 | 0.00 | 0.00 | 0.00 | 81 | 999.1 |
| 20260506015423 | 25 | 200 | 0.0 | 3.2 | 0.00 | 0.00 | 0.00 | 81 | 999.1 |
| 20260506015324 | 25 | 200 | 0.0 | 3.2 | 0.00 | 0.00 | 0.00 | 81 | 999.1 |
| 20260506015223 | 25 | 196 | 0.0 | 3.2 | 0.00 | 0.00 | 0.00 | 81 | 999.0 |
| 20260506015125 | 25 | 245 | 0.0 | 3.2 | 0.00 | 0.00 | 0.00 | 81 | 998.9 |
| 20260506015023 | 25 | 245 | 0.0 | 3.2 | 0.00 | 0.00 | 0.00 | 81 | 999.0 |
| 20260506014925 | 25 | 245 | 0.0 | 3.2 | 0.00 | 0.00 | 0.00 | 81 | 998.9 |
| 20260506014822 | 25 | 245 | 0.0 | 3.2 | 0.00 | 0.00 | 0.00 | 81 | 998.8 |
| 20260506014721 | 25 | 245 | 0.0 | 3.2 | 0.00 | 0.00 | 0.00 | 81 | 998.9 |
| 20260506014623 | 25 | 210 | 0.0 | 3.2 | 0.00 | 0.00 | 0.00 | 81 | 998.8 |
| 20260506014514 | 25 | 210 | 0.0 | 3.2 | 0.00 | 0.00 | 0.00 | 81 | 998.8 |
| 20260506014415 | 26 | 210 | 0.0 | 3.2 | 0.00 | 0.00 | 0.00 | 81 | 998.8 |
| 20260506014310 | 26 | 271 | 0.0 | 0.0 | 0.00 | 0.00 | 0.00 | 81 | 998.7 |
| 20260506014209 | 26 | 259 | 0.0 | 0.0 | 0.00 | 0.00 | 0.00 | 81 | 998.8 |
| 20260506014106 | 26 | 259 | 0.0 | 0.0 | 0.00 | 0.00 | 0.00 | 81 | 998.7 |
| 20260506014003 | 26 | 259 | 0.0 | 0.0 | 0.00 | 0.00 | 0.00 | 81 | 998.7 |
| 20260506013904 | 26 | 259 | 0.0 | 0.0 | 0.00 | 0.00 | 0.00 | 81 | 998.8 |
| 20260506013803 | 26 | 259 | 0.0 | 1.6 | 0.00 | 0.00 | 0.00 | 81 | 998.7 |
| 20260506013702 | 26 | 259 | 0.0 | 1.6 | 0.00 | 0.00 | 0.00 | 81 | 998.7 |
| 20260506013602 | 26 | 259 | 0.0 | 1.6 | 0.00 | 0.00 | 0.00 | 81 | 998.7 |
| 20260506013502 | 26 | 259 | 0.0 | 3.2 | 0.00 | 0.00 | 0.00 | 81 | 998.6 |
| 20260506013404 | 26 | 259 | 0.0 | 3.2 | 0.00 | 0.00 | 0.00 | 81 | 998.7 |
| 20260506013303 | 26 | 259 | 0.0 | 3.2 | 0.00 | 0.00 | 0.00 | 81 | 998.6 |
| 20260506013202 | 26 | 259 | 0.0 | 3.2 | 0.00 | 0.00 | 0.00 | 81 | 998.7 |
| 20260506013103 | 26 | 259 | 0.0 | 3.2 | 0.00 | 0.00 | 0.00 | 81 | 998.6 |
| 20260506013005 | 26 | 259 | 0.0 | 3.2 | 0.00 | 0.00 | 0.00 | 81 | 998.6 |
| 20260506012902 | 26 | 259 | 0.0 | 3.2 | 0.00 | 0.00 | 0.00 | 81 | 998.6 |
| 20260506012803 | 26 | 258 | 0.0 | 3.2 | 0.00 | 0.00 | 0.00 | 80 | 998.6 |
| 20260506012702 | 26 | 258 | 0.0 | 3.2 | 0.00 | 0.00 | 0.00 | 80 | 998.6 |
| 20260506012602 | 26 | 258 | 0.0 | 3.2 | 0.00 | 0.00 | 0.00 | 80 | 998.7 |
| 20260506012503 | 26 | 182 | 0.0 | 0.0 | 0.00 | 0.00 | 0.00 | 80 | 998.7 |
| 20260506012403 | 26 | 244 | 0.0 | 1.6 | 0.00 | 0.00 | 0.00 | 80 | 998.6 |
| 20260506012307 | 26 | 244 | 0.0 | 1.6 | 0.00 | 0.00 | 0.00 | 80 | 998.7 |
| 20260506012202 | 26 | 244 | 0.0 | 1.6 | 0.00 | 0.00 | 0.00 | 80 | 998.6 |
| 20260506012102 | 26 | 244 | 0.0 | 1.6 | 0.00 | 0.00 | 0.00 | 80 | 998.7 |
| 20260506012003 | 26 | 244 | 0.0 | 1.6 | 0.00 | 0.00 | 0.00 | 80 | 998.6 |
| 20260506011904 | 26 | 244 | 0.0 | 1.6 | 0.00 | 0.00 | 0.00 | 80 | 998.6 |
| 20260506011803 | 26 | 244 | 0.0 | 1.6 | 0.00 | 0.00 | 0.00 | 80 | 998.6 |
| 20260506011702 | 26 | 244 | 0.0 | 1.6 | 0.00 | 0.00 | 0.00 | 80 | 998.5 |
| 20260506011602 | 26 | 244 | 0.0 | 1.6 | 0.00 | 0.00 | 0.00 | 80 | 998.6 |
| 20260506011505 | 26 | 244 | 0.0 | 1.6 | 0.00 | 0.00 | 0.00 | 80 | 998.5 |
| 20260506011402 | 26 | 244 | 0.0 | 0.0 | 0.00 | 0.00 | 0.00 | 80 | 998.6 |
| 20260506011303 | 26 | 244 | 0.0 | 0.0 | 0.00 | 0.00 | 0.00 | 80 | 998.5 |
| 20260506011202 | 26 | 244 | 0.0 | 0.0 | 0.00 | 0.00 | 0.00 | 80 | 998.5 |
| 20260506011103 | 26 | 244 | 0.0 | 1.6 | 0.00 | 0.00 | 0.00 | 80 | 998.5 |
| 20260506011005 | 26 | 244 | 0.0 | 3.2 | 0.00 | 0.00 | 0.00 | 80 | 998.4 |
| 20260506010902 | 26 | 244 | 0.0 | 3.2 | 0.00 | 0.00 | 0.00 | 80 | 998.5 |
| 20260506010802 | 26 | 244 | 0.0 | 3.2 | 0.00 | 0.00 | 0.00 | 80 | 998.4 |
| 20260506010702 | 26 | 244 | 0.0 | 3.2 | 0.00 | 0.00 | 0.00 | 80 | 998.5 |
| 20260506010601 | 26 | 244 | 0.0 | 3.2 | 0.00 | 0.00 | 0.00 | 80 | 998.4 |
| 20260506010505 | 26 | 244 | 0.0 | 3.2 | 0.00 | 0.00 | 0.00 | 80 | 998.5 |
| 20260506010402 | 26 | 244 | 0.0 | 3.2 | 0.00 | 0.00 | 0.00 | 80 | 998.4 |
| 20260506010303 | 26 | 244 | 0.0 | 3.2 | 0.00 | 0.00 | 0.00 | 80 | 998.3 |
| 20260506010204 | 26 | 244 | 0.0 | 3.2 | 0.00 | 0.00 | 0.00 | 80 | 998.3 |
| 20260506010003 | 26 | 286 | 0.0 | 3.2 | 0.00 | 0.00 | 0.00 | 80 | 998.3 |
| 20260506005902 | 26 | 286 | 0.0 | 4.8 | 0.00 | 0.00 | 0.00 | 80 | 998.3 |
| 20260506005802 | 26 | 286 | 0.0 | 4.8 | 0.00 | 0.00 | 0.00 | 80 | 998.3 |
| 20260506005702 | 26 | 286 | 0.0 | 4.8 | 0.00 | 0.00 | 0.00 | 80 | 998.3 |
| 20260506005604 | 26 | 286 | 0.0 | 4.8 | 0.00 | 0.00 | 0.00 | 80 | 998.2 |
| 20260506005503 | 26 | 228 | 0.0 | 4.8 | 0.00 | 0.00 | 0.00 | 80 | 998.2 |
| 20260506005403 | 26 | 228 | 0.0 | 4.8 | 0.00 | 0.00 | 0.00 | 80 | 998.2 |
| 20260506005305 | 26 | 228 | 0.0 | 4.8 | 0.00 | 0.00 | 0.00 | 80 | 998.2 |
| 20260506005202 | 26 | 228 | 0.0 | 4.8 | 0.00 | 0.00 | 0.00 | 80 | 998.1 |
| 20260506005103 | 26 | 212 | 0.0 | 4.8 | 0.00 | 0.00 | 0.00 | 80 | 998.1 |
| 20260506005002 | 26 | 278 | 0.0 | 4.8 | 0.00 | 0.00 | 0.00 | 80 | 998.1 |
| 20260506004902 | 26 | 216 | 0.0 | 3.2 | 0.00 | 0.00 | 0.00 | 80 | 998.1 |
| 20260506004802 | 26 | 216 | 0.0 | 3.2 | 0.00 | 0.00 | 0.00 | 80 | 998.2 |
| 20260506004704 | 26 | 216 | 0.0 | 3.2 | 0.00 | 0.00 | 0.00 | 80 | 998.1 |
| 20260506004604 | 26 | 186 | 0.0 | 3.2 | 0.00 | 0.00 | 0.00 | 80 | 998.1 |
| 20260506004500 | 26 | 171 | 0.0 | 3.2 | 0.00 | 0.00 | 0.00 | 80 | 998.1 |
| 20260506004358 | 26 | 171 | 1.6 | 3.2 | 0.00 | 0.00 | 0.00 | 80 | 998.2 |
| 20260506004258 | 26 | 188 | 0.0 | 3.2 | 0.00 | 0.00 | 0.00 | 80 | 998.2 |
| 20260506004150 | 26 | 265 | 0.0 | 3.2 | 0.00 | 0.00 | 0.00 | 80 | 998.2 |
| 20260506004047 | 26 | 265 | 0.0 | 3.2 | 0.00 | 0.00 | 0.00 | 80 | 998.2 |
| 20260506003945 | 26 | 265 | 0.0 | 3.2 | 0.00 | 0.00 | 0.00 | 80 | 998.1 |
| 20260506003838 | 26 | 265 | 0.0 | 1.6 | 0.00 | 0.00 | 0.00 | 80 | 998.2 |
| 20260506003731 | 26 | 265 | 0.0 | 1.6 | 0.00 | 0.00 | 0.00 | 80 | 998.1 |
| 20260506003633 | 26 | 265 | 0.0 | 1.6 | 0.00 | 0.00 | 0.00 | 80 | 998.2 |
| 20260506003532 | 26 | 265 | 0.0 | 1.6 | 0.00 | 0.00 | 0.00 | 80 | 998.1 |
| 20260506003431 | 26 | 265 | 0.0 | 1.6 | 0.00 | 0.00 | 0.00 | 80 | 998.1 |
| 20260506003330 | 26 | 265 | 0.0 | 1.6 | 0.00 | 0.00 | 0.00 | 80 | 998.2 |
| 20260506003231 | 26 | 265 | 0.0 | 3.2 | 0.00 | 0.00 | 0.00 | 80 | 998.1 |
| 20260506003123 | 26 | 255 | 0.0 | 3.2 | 0.00 | 0.00 | 0.00 | 80 | 998.1 |
| 20260506003022 | 26 | 255 | 0.0 | 3.2 | 0.00 | 0.00 | 0.00 | 80 | 998.2 |
| 20260506002921 | 26 | 255 | 0.0 | 3.2 | 0.00 | 0.00 | 0.00 | 80 | 998.2 |
| 20260506002822 | 26 | 255 | 0.0 | 3.2 | 0.00 | 0.00 | 0.00 | 80 | 998.1 |
| 20260506002723 | 26 | 255 | 0.0 | 3.2 | 0.00 | 0.00 | 0.00 | 80 | 998.1 |
| 20260506002623 | 27 | 255 | 0.0 | 3.2 | 0.00 | 0.00 | 0.00 | 80 | 998.2 |
| 20260506002521 | 27 | 219 | 0.0 | 3.2 | 0.00 | 0.00 | 0.00 | 80 | 998.2 |
| 20260506002423 | 27 | 219 | 0.0 | 3.2 | 0.00 | 0.00 | 0.00 | 80 | 998.1 |
| 20260506002323 | 27 | 219 | 0.0 | 3.2 | 0.00 | 0.00 | 0.00 | 80 | 998.1 |
| 20260506002223 | 27 | 219 | 0.0 | 3.2 | 0.00 | 0.00 | 0.00 | 80 | 998.1 |
| 20260506002123 | 27 | 219 | 0.0 | 3.2 | 0.00 | 0.00 | 0.00 | 80 | 998.2 |
| 20260506002024 | 27 | 219 | 0.0 | 3.2 | 0.00 | 0.00 | 0.00 | 80 | 998.1 |
| 20260506001921 | 27 | 219 | 0.0 | 3.2 | 0.00 | 0.00 | 0.00 | 80 | 998.2 |
| 20260506001823 | 27 | 219 | 0.0 | 3.2 | 0.00 | 0.00 | 0.00 | 79 | 998.2 |
| 20260506001722 | 27 | 219 | 0.0 | 6.4 | 0.00 | 0.00 | 0.00 | 79 | 998.2 |
| 20260506001622 | 27 | 141 | 0.0 | 6.4 | 0.00 | 0.00 | 0.00 | 79 | 998.1 |
| 20260506001522 | 27 | 141 | 0.0 | 6.4 | 0.00 | 0.00 | 0.00 | 79 | 998.1 |
| 20260506001423 | 27 | 135 | 0.0 | 6.4 | 0.00 | 0.00 | 0.00 | 79 | 998.1 |
| 20260506001321 | 27 | 135 | 0.0 | 6.4 | 0.00 | 0.00 | 0.00 | 79 | 998.2 |
| 20260506001223 | 27 | 266 | 0.0 | 6.4 | 0.00 | 0.00 | 0.00 | 79 | 998.2 |
| 20260506001123 | 27 | 266 | 0.0 | 6.4 | 0.00 | 0.00 | 0.00 | 79 | 998.2 |
| 20260506001023 | 27 | 266 | 0.0 | 6.4 | 0.00 | 0.00 | 0.00 | 79 | 998.2 |
| 20260506000922 | 27 | 266 | 1.6 | 6.4 | 0.00 | 0.00 | 0.00 | 79 | 998.2 |
| 20260506000822 | 27 | 266 | 1.6 | 6.4 | 0.00 | 0.00 | 0.00 | 79 | 998.2 |
| 20260506000721 | 27 | 321 | 0.0 | 3.2 | 0.00 | 0.00 | 0.00 | 79 | 998.2 |
| 20260506000622 | 27 | 0 | 1.6 | 3.2 | 0.00 | 0.00 | 0.00 | 79 | 998.3 |
| 20260506000522 | 27 | 140 | 0.0 | 3.2 | 0.00 | 0.00 | 0.00 | 79 | 998.3 |
| 20260506000423 | 27 | 254 | 0.0 | 3.2 | 0.00 | 0.00 | 0.00 | 79 | 998.3 |
| 20260506000323 | 27 | 255 | 0.0 | 3.2 | 0.00 | 0.00 | 0.00 | 79 | 998.3 |
| 20260506000222 | 27 | 255 | 0.0 | 3.2 | 0.00 | 0.00 | 0.00 | 79 | 998.4 |
| 20260506000122 | 27 | 272 | 0.0 | 4.8 | 0.00 | 0.00 | 0.00 | 79 | 998.3 |
| 20260506000023 | 27 | 223 | 0.0 | 4.8 | 0.00 | 0.00 | 0.00 | 79 | 998.3 |
| 20260505235923 | 27 | 223 | 0.0 | 4.8 | 0.00 | 0.00 | 0.00 | 79 | 998.3 |
| 20260505235821 | 27 | 89 | 0.0 | 4.8 | 0.00 | 0.00 | 0.00 | 79 | 998.3 |
| 20260505235722 | 27 | 89 | 0.0 | 4.8 | 0.00 | 0.00 | 0.00 | 79 | 998.2 |
| 20260505235622 | 27 | 89 | 0.0 | 4.8 | 0.00 | 0.00 | 0.00 | 79 | 998.2 |
| 20260505235524 | 27 | 89 | 1.6 | 4.8 | 0.00 | 0.00 | 0.00 | 79 | 998.1 |
| 20260505235422 | 27 | 89 | 0.0 | 4.8 | 0.00 | 0.00 | 0.00 | 79 | 998.1 |
| 20260505235321 | 27 | 196 | 1.6 | 4.8 | 0.00 | 0.00 | 0.00 | 79 | 998.1 |
| 20260505235222 | 27 | 196 | 3.2 | 4.8 | 0.00 | 0.00 | 0.00 | 79 | 998.0 |
| 20260505235121 | 27 | 321 | 0.0 | 3.2 | 0.00 | 0.00 | 0.00 | 79 | 998.1 |
| 20260505235023 | 27 | 142 | 0.0 | 1.6 | 0.00 | 0.00 | 0.00 | 79 | 998.0 |
| 20260505234921 | 27 | 142 | 0.0 | 3.2 | 0.00 | 0.00 | 0.00 | 79 | 998.0 |
| 20260505234821 | 27 | 142 | 0.0 | 3.2 | 0.00 | 0.00 | 0.00 | 80 | 998.0 |
| 20260505234722 | 27 | 164 | 0.0 | 3.2 | 0.00 | 0.00 | 0.00 | 79 | 998.0 |
| 20260505234621 | 27 | 164 | 0.0 | 3.2 | 0.00 | 0.00 | 0.00 | 79 | 998.1 |
| 20260505234520 | 27 | 164 | 0.0 | 3.2 | 0.00 | 0.00 | 0.00 | 79 | 998.0 |
| 20260505234421 | 27 | 164 | 0.0 | 3.2 | 0.00 | 0.00 | 0.00 | 79 | 998.0 |
| 20260505234321 | 27 | 164 | 0.0 | 3.2 | 0.00 | 0.00 | 0.00 | 79 | 998.1 |
| 20260505234220 | 27 | 164 | 0.0 | 3.2 | 0.00 | 0.00 | 0.00 | 79 | 998.1 |
| 20260505234121 | 27 | 165 | 1.6 | 3.2 | 0.00 | 0.00 | 0.00 | 79 | 998.1 |
| 20260505234020 | 27 | 165 | 0.0 | 3.2 | 0.00 | 0.00 | 0.00 | 79 | 998.1 |
| 20260505233922 | 27 | 140 | 0.0 | 3.2 | 0.00 | 0.00 | 0.00 | 79 | 998.1 |
| 20260505233821 | 27 | 140 | 0.0 | 3.2 | 0.00 | 0.00 | 0.00 | 79 | 998.0 |
| 20260505233720 | 27 | 140 | 0.0 | 4.8 | 0.00 | 0.00 | 0.00 | 79 | 998.0 |
| 20260505233621 | 27 | 140 | 0.0 | 4.8 | 0.00 | 0.00 | 0.00 | 79 | 998.0 |
| 20260505233522 | 27 | 140 | 1.6 | 4.8 | 0.00 | 0.00 | 0.00 | 79 | 998.0 |
| 20260505233420 | 27 | 140 | 1.6 | 4.8 | 0.00 | 0.00 | 0.00 | 79 | 998.0 |
| 20260505233320 | 27 | 148 | 0.0 | 4.8 | 0.00 | 0.00 | 0.00 | 79 | 998.0 |
| 20260505233222 | 27 | 148 | 1.6 | 4.8 | 0.00 | 0.00 | 0.00 | 79 | 998.0 |
| 20260505233120 | 27 | 148 | 1.6 | 4.8 | 0.00 | 0.00 | 0.00 | 79 | 998.1 |
| 20260505233021 | 27 | 344 | 1.6 | 4.8 | 0.00 | 0.00 | 0.00 | 79 | 998.0 |
| 20260505232922 | 27 | 341 | 1.6 | 4.8 | 0.00 | 0.00 | 0.00 | 79 | 998.0 |
| 20260505232821 | 27 | 341 | 3.2 | 4.8 | 0.00 | 0.00 | 0.00 | 80 | 998.1 |
| 20260505232721 | 27 | 353 | 3.2 | 4.8 | 0.00 | 0.00 | 0.00 | 80 | 998.0 |
| 20260505232620 | 27 | 195 | 1.6 | 3.2 | 0.00 | 0.00 | 0.00 | 79 | 998.0 |
| 20260505232520 | 27 | 49 | 0.0 | 3.2 | 0.00 | 0.00 | 0.00 | 79 | 998.0 |
| 20260505232421 | 27 | 49 | 0.0 | 3.2 | 0.00 | 0.00 | 0.00 | 79 | 997.9 |
| 20260505232320 | 27 | 44 | 0.0 | 4.8 | 0.00 | 0.00 | 0.00 | 79 | 997.9 |
| 20260505232221 | 27 | 45 | 0.0 | 4.8 | 0.00 | 0.00 | 0.00 | 79 | 997.9 |
| 20260505232120 | 27 | 44 | 1.6 | 4.8 | 0.00 | 0.00 | 0.00 | 79 | 997.9 |
| 20260505232022 | 27 | 44 | 1.6 | 4.8 | 0.00 | 0.00 | 0.00 | 79 | 997.8 |
| 20260505231921 | 27 | 0 | 0.0 | 4.8 | 0.00 | 0.00 | 0.00 | 79 | 997.8 |
| 20260505231820 | 27 | 0 | 0.0 | 4.8 | 0.00 | 0.00 | 0.00 | 79 | 997.8 |
| 20260505231720 | 27 | 0 | 0.0 | 4.8 | 0.00 | 0.00 | 0.00 | 79 | 997.8 |
| 20260505231621 | 27 | 0 | 1.6 | 4.8 | 0.00 | 0.00 | 0.00 | 79 | 997.9 |
| 20260505231521 | 27 | 0 | 1.6 | 4.8 | 0.00 | 0.00 | 0.00 | 79 | 997.9 |
| 20260505231420 | 27 | 206 | 1.6 | 4.8 | 0.00 | 0.00 | 0.00 | 79 | 997.9 |
| 20260505231321 | 27 | 303 | 0.0 | 4.8 | 0.00 | 0.00 | 0.00 | 79 | 998.0 |
| 20260505231220 | 27 | 212 | 0.0 | 4.8 | 0.00 | 0.00 | 0.00 | 79 | 997.9 |
| 20260505231120 | 27 | 212 | 0.0 | 4.8 | 0.00 | 0.00 | 0.00 | 79 | 997.8 |
| 20260505231020 | 27 | 212 | 1.6 | 4.8 | 0.00 | 0.00 | 0.00 | 79 | 997.8 |
| 20260505230919 | 27 | 299 | 1.6 | 4.8 | 0.00 | 0.00 | 0.00 | 79 | 997.8 |
| 20260505230819 | 27 | 148 | 1.6 | 4.8 | 0.00 | 0.00 | 0.00 | 79 | 997.8 |
| 20260505230721 | 27 | 100 | 1.6 | 4.8 | 0.00 | 0.00 | 0.00 | 79 | 997.9 |
| 20260505230621 | 27 | 99 | 0.0 | 4.8 | 0.00 | 0.00 | 0.00 | 79 | 997.8 |
| 20260505230520 | 27 | 134 | 0.0 | 4.8 | 0.00 | 0.00 | 0.00 | 79 | 997.8 |
| 20260505230419 | 27 | 134 | 0.0 | 4.8 | 0.00 | 0.00 | 0.00 | 79 | 997.9 |
| 20260505230319 | 27 | 134 | 1.6 | 4.8 | 0.00 | 0.00 | 0.00 | 79 | 997.9 |
| 20260505230220 | 27 | 4 | 1.6 | 4.8 | 0.00 | 0.00 | 0.00 | 79 | 997.9 |
| 20260505230119 | 27 | 272 | 1.6 | 3.2 | 0.00 | 0.00 | 0.00 | 79 | 997.9 |
| 20260505230020 | 27 | 272 | 0.0 | 3.2 | 0.00 | 0.00 | 0.00 | 79 | 997.9 |
| 20260505225920 | 27 | 272 | 1.6 | 3.2 | 0.00 | 0.00 | 0.00 | 79 | 997.9 |
| 20260505225819 | 27 | 259 | 1.6 | 3.2 | 0.00 | 0.00 | 0.00 | 79 | 997.9 |
| 20260505225721 | 27 | 259 | 1.6 | 3.2 | 0.00 | 0.00 | 0.00 | 79 | 997.9 |
| 20260505225621 | 27 | 233 | 0.0 | 3.2 | 0.00 | 0.00 | 0.00 | 79 | 998.0 |
| 20260505225520 | 27 | 231 | 1.6 | 4.8 | 0.00 | 0.00 | 0.00 | 79 | 998.0 |
| 20260505225419 | 27 | 231 | 0.0 | 4.8 | 0.00 | 0.00 | 0.00 | 79 | 998.0 |
| 20260505225320 | 27 | 343 | 0.0 | 4.8 | 0.00 | 0.00 | 0.00 | 79 | 998.0 |
| 20260505225220 | 27 | 343 | 0.0 | 4.8 | 0.00 | 0.00 | 0.00 | 79 | 998.0 |
| 20260505225119 | 27 | 343 | 0.0 | 4.8 | 0.00 | 0.00 | 0.00 | 79 | 998.1 |
| 20260505225020 | 27 | 343 | 0.0 | 4.8 | 0.00 | 0.00 | 0.00 | 79 | 998.1 |
| 20260505224920 | 27 | 319 | 0.0 | 4.8 | 0.00 | 0.00 | 0.00 | 79 | 998.0 |
| 20260505224820 | 27 | 319 | 1.6 | 4.8 | 0.00 | 0.00 | 0.00 | 79 | 998.1 |
| 20260505224721 | 27 | 319 | 3.2 | 4.8 | 0.00 | 0.00 | 0.00 | 79 | 998.0 |
| 20260505224621 | 27 | 42 | 3.2 | 4.8 | 0.00 | 0.00 | 0.00 | 79 | 998.1 |
| 20260505224520 | 27 | 197 | 1.6 | 4.8 | 0.00 | 0.00 | 0.00 | 79 | 998.0 |
| 20260505224419 | 27 | 305 | 1.6 | 4.8 | 0.00 | 0.00 | 0.00 | 79 | 998.0 |
| 20260505224319 | 27 | 305 | 1.6 | 4.8 | 0.00 | 0.00 | 0.00 | 79 | 998.1 |
| 20260505224221 | 27 | 305 | 0.0 | 4.8 | 0.00 | 0.00 | 0.00 | 78 | 998.0 |
| 20260505224119 | 27 | 303 | 1.6 | 4.8 | 0.00 | 0.00 | 0.00 | 78 | 998.0 |
| 20260505224020 | 27 | 309 | 1.6 | 4.8 | 0.00 | 0.00 | 0.00 | 78 | 998.0 |
| 20260505223919 | 27 | 226 | 1.6 | 4.8 | 0.00 | 0.00 | 0.00 | 78 | 998.0 |
| 20260505223821 | 27 | 235 | 1.6 | 4.8 | 0.00 | 0.00 | 0.00 | 78 | 998.0 |
| 20260505223720 | 27 | 188 | 1.6 | 4.8 | 0.00 | 0.00 | 0.00 | 79 | 998.0 |
| 20260505223619 | 27 | 347 | 1.6 | 4.8 | 0.00 | 0.00 | 0.00 | 79 | 998.0 |
| 20260505223519 | 27 | 274 | 0.0 | 4.8 | 0.00 | 0.00 | 0.00 | 79 | 998.0 |
| 20260505223420 | 27 | 214 | 0.0 | 3.2 | 0.00 | 0.00 | 0.00 | 79 | 998.0 |
| 20260505223320 | 27 | 214 | 1.6 | 3.2 | 0.00 | 0.00 | 0.00 | 79 | 998.0 |
| 20260505223219 | 27 | 209 | 1.6 | 3.2 | 0.00 | 0.00 | 0.00 | 79 | 998.0 |
| 20260505223118 | 27 | 209 | 1.6 | 3.2 | 0.00 | 0.00 | 0.00 | 79 | 998.0 |
| 20260505223019 | 27 | 212 | 1.6 | 6.4 | 0.00 | 0.00 | 0.00 | 79 | 998.0 |
| 20260505222919 | 27 | 212 | 1.6 | 6.4 | 0.00 | 0.00 | 0.00 | 79 | 998.0 |
| 20260505222820 | 27 | 196 | 1.6 | 6.4 | 0.00 | 0.00 | 0.00 | 78 | 998.0 |
| 20260505222721 | 27 | 196 | 1.6 | 6.4 | 0.00 | 0.00 | 0.00 | 78 | 998.0 |
| 20260505222620 | 27 | 213 | 1.6 | 6.4 | 0.00 | 0.00 | 0.00 | 78 | 998.0 |
| 20260505222519 | 27 | 331 | 1.6 | 8.0 | 0.00 | 0.00 | 0.00 | 78 | 997.9 |
| 20260505222420 | 27 | 159 | 1.6 | 8.0 | 0.00 | 0.00 | 0.00 | 78 | 997.9 |
| 20260505222319 | 27 | 51 | 1.6 | 8.0 | 0.00 | 0.00 | 0.00 | 78 | 997.9 |
| 20260505222220 | 27 | 83 | 3.2 | 8.0 | 0.00 | 0.00 | 0.00 | 78 | 997.9 |
| 20260505222118 | 27 | 313 | 1.6 | 8.0 | 0.00 | 0.00 | 0.00 | 79 | 998.0 |
| 20260505222020 | 27 | 219 | 1.6 | 8.0 | 0.00 | 0.00 | 0.00 | 77 | 998.0 |
| 20260505221919 | 27 | 219 | 1.6 | 8.0 | 0.00 | 0.00 | 0.00 | 77 | 998.0 |
| 20260505221820 | 27 | 0 | 1.6 | 8.0 | 0.00 | 0.00 | 0.00 | 77 | 998.0 |
| 20260505221718 | 27 | 0 | 1.6 | 8.0 | 0.00 | 0.00 | 0.00 | 77 | 998.0 |
| 20260505221619 | 27 | 248 | 1.6 | 8.0 | 0.00 | 0.00 | 0.00 | 77 | 998.0 |
| 20260505221520 | 28 | 228 | 1.6 | 4.8 | 0.00 | 0.00 | 0.00 | 77 | 998.0 |
| 20260505221420 | 28 | 233 | 1.6 | 4.8 | 0.00 | 0.00 | 0.00 | 78 | 998.1 |
| 20260505221318 | 28 | 142 | 1.6 | 3.2 | 0.00 | 0.00 | 0.00 | 78 | 998.1 |
| 20260505221219 | 28 | 338 | 1.6 | 3.2 | 0.00 | 0.00 | 0.00 | 78 | 998.1 |
| 20260505221118 | 28 | 350 | 1.6 | 4.8 | 0.00 | 0.00 | 0.00 | 78 | 998.1 |
| 20260505221020 | 28 | 351 | 0.0 | 4.8 | 0.00 | 0.00 | 0.00 | 78 | 998.1 |
| 20260505220919 | 28 | 350 | 1.6 | 4.8 | 0.00 | 0.00 | 0.00 | 78 | 998.1 |
| 20260505220819 | 28 | 159 | 1.6 | 4.8 | 0.00 | 0.00 | 0.00 | 78 | 998.0 |
| 20260505220719 | 28 | 159 | 1.6 | 4.8 | 0.00 | 0.00 | 0.00 | 78 | 998.0 |
| 20260505220619 | 28 | 159 | 1.6 | 4.8 | 0.00 | 0.00 | 0.00 | 78 | 998.1 |
| 20260505220518 | 28 | 161 | 0.0 | 4.8 | 0.00 | 0.00 | 0.00 | 78 | 998.0 |
| 20260505220419 | 28 | 161 | 1.6 | 4.8 | 0.00 | 0.00 | 0.00 | 78 | 998.0 |
| 20260505220319 | 28 | 161 | 1.6 | 4.8 | 0.00 | 0.00 | 0.00 | 78 | 998.1 |
| 20260505220219 | 28 | 168 | 1.6 | 4.8 | 0.00 | 0.00 | 0.00 | 78 | 998.2 |
| 20260505220118 | 28 | 237 | 1.6 | 4.8 | 0.00 | 0.00 | 0.00 | 78 | 998.1 |
| 20260505220019 | 28 | 237 | 1.6 | 4.8 | 0.00 | 0.00 | 0.00 | 78 | 998.1 |
| 20260505215918 | 28 | 165 | 1.6 | 4.8 | 0.00 | 0.00 | 0.00 | 78 | 998.1 |
| 20260505215818 | 28 | 165 | 3.2 | 4.8 | 0.00 | 0.00 | 0.00 | 78 | 998.1 |
| 20260505215720 | 28 | 48 | 3.2 | 4.8 | 0.00 | 0.00 | 0.00 | 77 | 998.2 |
| 20260505215618 | 28 | 245 | 1.6 | 4.8 | 0.00 | 0.00 | 0.00 | 77 | 998.1 |
| 20260505215519 | 28 | 251 | 1.6 | 4.8 | 0.00 | 0.00 | 0.00 | 77 | 998.1 |
| 20260505215418 | 28 | 251 | 1.6 | 4.8 | 0.00 | 0.00 | 0.00 | 77 | 998.1 |
| 20260505215319 | 28 | 224 | 1.6 | 4.8 | 0.00 | 0.00 | 0.00 | 77 | 998.2 |
| 20260505215218 | 28 | 276 | 1.6 | 4.8 | 0.00 | 0.00 | 0.00 | 78 | 998.2 |
| 20260505215118 | 28 | 199 | 3.2 | 4.8 | 0.00 | 0.00 | 0.00 | 78 | 998.2 |
| 20260505215019 | 28 | 32 | 3.2 | 4.8 | 0.00 | 0.00 | 0.00 | 79 | 998.3 |
| 20260505214918 | 28 | 100 | 1.6 | 3.2 | 0.00 | 0.00 | 0.00 | 79 | 998.3 |
| 20260505214818 | 28 | 75 | 1.6 | 3.2 | 0.00 | 0.00 | 0.00 | 79 | 998.2 |
| 20260505214718 | 28 | 164 | 0.0 | 3.2 | 0.00 | 0.00 | 0.00 | 78 | 998.3 |
| 20260505214620 | 28 | 164 | 0.0 | 4.8 | 0.00 | 0.00 | 0.00 | 79 | 998.2 |
| 20260505214518 | 28 | 164 | 0.0 | 4.8 | 0.00 | 0.00 | 0.00 | 79 | 998.3 |
| 20260505214419 | 28 | 164 | 0.0 | 4.8 | 0.00 | 0.00 | 0.00 | 79 | 998.4 |
| 20260505214319 | 28 | 164 | 0.0 | 4.8 | 0.00 | 0.00 | 0.00 | 79 | 998.4 |
| 20260505214220 | 28 | 164 | 0.0 | 4.8 | 0.00 | 0.00 | 0.00 | 79 | 998.3 |
| 20260505214118 | 28 | 164 | 0.0 | 4.8 | 0.00 | 0.00 | 0.00 | 79 | 998.4 |
| 20260505214019 | 28 | 164 | 0.0 | 6.4 | 0.00 | 0.00 | 0.00 | 79 | 998.4 |
| 20260505213919 | 28 | 164 | 1.6 | 6.4 | 0.00 | 0.00 | 0.00 | 79 | 998.4 |
| 20260505213818 | 28 | 164 | 1.6 | 6.4 | 0.00 | 0.00 | 0.00 | 78 | 998.4 |
| 20260505213718 | 28 | 162 | 1.6 | 6.4 | 0.00 | 0.00 | 0.00 | 78 | 998.4 |
| 20260505213619 | 28 | 244 | 0.0 | 6.4 | 0.00 | 0.00 | 0.00 | 79 | 998.4 |
| 20260505213518 | 28 | 319 | 0.0 | 6.4 | 0.00 | 0.00 | 0.00 | 79 | 998.4 |
| 20260505213418 | 28 | 319 | 0.0 | 6.4 | 0.00 | 0.00 | 0.00 | 79 | 998.5 |
| 20260505213318 | 28 | 319 | 0.0 | 6.4 | 0.00 | 0.00 | 0.00 | 79 | 998.6 |
| 20260505213218 | 28 | 319 | 1.6 | 6.4 | 0.00 | 0.00 | 0.00 | 78 | 998.6 |
| 20260505213119 | 28 | 330 | 3.2 | 6.4 | 0.00 | 0.00 | 0.00 | 78 | 998.5 |
| 20260505213018 | 28 | 296 | 1.6 | 4.8 | 0.00 | 0.00 | 0.00 | 78 | 998.5 |
| 20260505212918 | 28 | 72 | 1.6 | 4.8 | 0.00 | 0.00 | 0.00 | 77 | 998.5 |
| 20260505212818 | 28 | 313 | 0.0 | 4.8 | 0.00 | 0.00 | 0.00 | 77 | 998.6 |
| 20260505212718 | 28 | 0 | 1.6 | 4.8 | 0.00 | 0.00 | 0.00 | 77 | 998.7 |
| 20260505212617 | 28 | 0 | 1.6 | 4.8 | 0.00 | 0.00 | 0.00 | 77 | 998.6 |
| 20260505212520 | 28 | 310 | 1.6 | 4.8 | 0.00 | 0.00 | 0.00 | 77 | 998.7 |
| 20260505212419 | 28 | 310 | 3.2 | 4.8 | 0.00 | 0.00 | 0.00 | 77 | 998.7 |
| 20260505212318 | 28 | 257 | 3.2 | 4.8 | 0.00 | 0.00 | 0.00 | 77 | 998.7 |
| 20260505212214 | 28 | 254 | 1.6 | 4.8 | 0.00 | 0.00 | 0.00 | 78 | 998.8 |
| 20260505212112 | 28 | 100 | 1.6 | 4.8 | 0.00 | 0.00 | 0.00 | 78 | 998.8 |
| 20260505212009 | 28 | 175 | 3.2 | 4.8 | 0.00 | 0.00 | 0.00 | 78 | 998.8 |
| 20260505211904 | 28 | 144 | 1.6 | 8.0 | 0.00 | 0.00 | 0.00 | 78 | 998.8 |
| 20260505211805 | 28 | 106 | 1.6 | 8.0 | 0.00 | 0.00 | 0.00 | 77 | 998.7 |
| 20260505211705 | 28 | 347 | 1.6 | 8.0 | 0.00 | 0.00 | 0.00 | 78 | 998.8 |
| 20260505211605 | 28 | 203 | 1.6 | 8.0 | 0.00 | 0.00 | 0.00 | 78 | 998.8 |
| 20260505211505 | 28 | 202 | 1.6 | 8.0 | 0.00 | 0.00 | 0.00 | 78 | 998.9 |
| 20260505211403 | 28 | 111 | 0.0 | 8.0 | 0.00 | 0.00 | 0.00 | 78 | 998.9 |
| 20260505211302 | 28 | 111 | 0.0 | 8.0 | 0.00 | 0.00 | 0.00 | 78 | 998.9 |
| 20260505211204 | 28 | 111 | 1.6 | 8.0 | 0.00 | 0.00 | 0.00 | 78 | 998.9 |
| 20260505211102 | 28 | 110 | 1.6 | 8.0 | 0.00 | 0.00 | 0.00 | 78 | 998.9 |
| 20260505211003 | 28 | 78 | 1.6 | 8.0 | 0.00 | 0.00 | 0.00 | 78 | 998.9 |
| 20260505210904 | 28 | 103 | 1.6 | 4.8 | 0.00 | 0.00 | 0.00 | 78 | 999.0 |
| 20260505210757 | 28 | 103 | 1.6 | 4.8 | 0.00 | 0.00 | 0.00 | 78 | 998.9 |
| 20260505210652 | 28 | 223 | 1.6 | 4.8 | 0.00 | 0.00 | 0.00 | 77 | 998.9 |
| 20260505210550 | 28 | 223 | 1.6 | 4.8 | 0.00 | 0.00 | 0.00 | 77 | 998.9 |
| 20260505210446 | 28 | 272 | 1.6 | 6.4 | 0.00 | 0.00 | 0.00 | 78 | 998.9 |
| 20260505210348 | 28 | 272 | 1.6 | 6.4 | 0.00 | 0.00 | 0.00 | 77 | 999.0 |
| 20260505210241 | 28 | 272 | 1.6 | 6.4 | 0.00 | 0.00 | 0.00 | 77 | 998.9 |
| 20260505210141 | 28 | 214 | 3.2 | 6.4 | 0.00 | 0.00 | 0.00 | 77 | 998.9 |
| 20260505210043 | 28 | 288 | 3.2 | 6.4 | 0.00 | 0.00 | 0.00 | 77 | 998.9 |
| 20260505205941 | 28 | 321 | 3.2 | 6.4 | 0.00 | 0.00 | 0.00 | 77 | 998.9 |
| 20260505205838 | 28 | 221 | 3.2 | 6.4 | 0.00 | 0.00 | 0.00 | 77 | 998.8 |
| 20260505205734 | 28 | 269 | 1.6 | 6.4 | 0.00 | 0.00 | 0.00 | 77 | 998.9 |
| 20260505205631 | 28 | 180 | 1.6 | 6.4 | 0.00 | 0.00 | 0.00 | 77 | 998.9 |
| 20260505205531 | 28 | 180 | 3.2 | 6.4 | 0.00 | 0.00 | 0.00 | 77 | 998.9 |
| 20260505205432 | 28 | 182 | 3.2 | 6.4 | 0.00 | 0.00 | 0.00 | 77 | 999.0 |
| 20260505205331 | 28 | 161 | 1.6 | 6.4 | 0.00 | 0.00 | 0.00 | 77 | 999.0 |
| 20260505205233 | 28 | 321 | 1.6 | 6.4 | 0.00 | 0.00 | 0.00 | 77 | 998.9 |
| 20260505205131 | 28 | 324 | 1.6 | 6.4 | 0.00 | 0.00 | 0.00 | 77 | 999.0 |
| 20260505205032 | 28 | 241 | 1.6 | 6.4 | 0.00 | 0.00 | 0.00 | 77 | 998.9 |
| 20260505204931 | 28 | 178 | 1.6 | 6.4 | 0.00 | 0.00 | 0.00 | 77 | 999.1 |
| 20260505204833 | 28 | 157 | 1.6 | 6.4 | 0.00 | 0.00 | 0.00 | 78 | 999.0 |
| 20260505204731 | 28 | 152 | 3.2 | 6.4 | 0.00 | 0.00 | 0.00 | 78 | 999.0 |
| 20260505204631 | 28 | 152 | 1.6 | 6.4 | 0.00 | 0.00 | 0.00 | 78 | 999.0 |
| 20260505204531 | 28 | 197 | 1.6 | 6.4 | 0.00 | 0.00 | 0.00 | 77 | 999.0 |
| 20260505204432 | 28 | 258 | 3.2 | 6.4 | 0.00 | 0.00 | 0.00 | 77 | 999.0 |
| 20260505204326 | 28 | 209 | 3.2 | 6.4 | 0.00 | 0.00 | 0.00 | 77 | 999.1 |
| 20260505204217 | 28 | 166 | 1.6 | 6.4 | 0.00 | 0.00 | 0.00 | 76 | 999.1 |
| 20260505204117 | 28 | 0 | 3.2 | 6.4 | 0.00 | 0.00 | 0.00 | 76 | 999.1 |
| 20260505204017 | 28 | 6 | 3.2 | 6.4 | 0.00 | 0.00 | 0.00 | 76 | 999.0 |
| 20260505203919 | 28 | 124 | 3.2 | 6.4 | 0.00 | 0.00 | 0.00 | 76 | 999.1 |
| 20260505203818 | 28 | 0 | 1.6 | 4.8 | 0.00 | 0.00 | 0.00 | 76 | 999.1 |
| 20260505203718 | 28 | 107 | 1.6 | 4.8 | 0.00 | 0.00 | 0.00 | 77 | 999.1 |
| 20260505203618 | 28 | 217 | 1.6 | 4.8 | 0.00 | 0.00 | 0.00 | 77 | 999.2 |
| 20260505203516 | 28 | 137 | 1.6 | 4.8 | 0.00 | 0.00 | 0.00 | 77 | 999.2 |
| 20260505203418 | 28 | 189 | 1.6 | 4.8 | 0.00 | 0.00 | 0.00 | 77 | 999.2 |
| 20260505203318 | 28 | 149 | 1.6 | 4.8 | 0.00 | 0.00 | 0.00 | 77 | 999.2 |
| 20260505203216 | 28 | 93 | 1.6 | 4.8 | 0.00 | 0.00 | 0.00 | 77 | 999.1 |
| 20260505203117 | 28 | 319 | 1.6 | 6.4 | 0.00 | 0.00 | 0.00 | 77 | 999.2 |
| 20260505203018 | 28 | 171 | 1.6 | 6.4 | 0.00 | 0.00 | 0.00 | 77 | 999.3 |
| 20260505202917 | 28 | 169 | 1.6 | 6.4 | 0.00 | 0.00 | 0.00 | 77 | 999.3 |
| 20260505202816 | 28 | 171 | 1.6 | 6.4 | 0.00 | 0.00 | 0.00 | 77 | 999.3 |
| 20260505202717 | 28 | 217 | 1.6 | 6.4 | 0.00 | 0.00 | 0.00 | 76 | 999.3 |
| 20260505202616 | 28 | 336 | 1.6 | 6.4 | 0.00 | 0.00 | 0.00 | 76 | 999.3 |
| 20260505202516 | 28 | 293 | 1.6 | 6.4 | 0.00 | 0.00 | 0.00 | 76 | 999.3 |
| 20260505202416 | 28 | 295 | 3.2 | 6.4 | 0.00 | 0.00 | 0.00 | 76 | 999.3 |
| 20260505202318 | 28 | 295 | 3.2 | 8.0 | 0.00 | 0.00 | 0.00 | 76 | 999.3 |
| 20260505202217 | 28 | 195 | 3.2 | 8.0 | 0.00 | 0.00 | 0.00 | 76 | 999.3 |
| 20260505202118 | 28 | 216 | 1.6 | 8.0 | 0.00 | 0.00 | 0.00 | 77 | 999.5 |
| 20260505202017 | 28 | 3 | 1.6 | 8.0 | 0.00 | 0.00 | 0.00 | 76 | 999.4 |
| 20260505201916 | 28 | 192 | 1.6 | 8.0 | 0.00 | 0.00 | 0.00 | 76 | 999.4 |
| 20260505201816 | 28 | 192 | 1.6 | 8.0 | 0.00 | 0.00 | 0.00 | 76 | 999.4 |
| 20260505201717 | 28 | 195 | 3.2 | 8.0 | 0.00 | 0.00 | 0.00 | 76 | 999.3 |
| 20260505201616 | 28 | 155 | 1.6 | 8.0 | 0.00 | 0.00 | 0.00 | 76 | 999.4 |
| 20260505201516 | 28 | 182 | 1.6 | 8.0 | 0.00 | 0.00 | 0.00 | 76 | 999.4 |
| 20260505201416 | 28 | 114 | 3.2 | 8.0 | 0.00 | 0.00 | 0.00 | 78 | 999.4 |
| 20260505201316 | 28 | 158 | 1.6 | 4.8 | 0.00 | 0.00 | 0.00 | 78 | 999.5 |
| 20260505201217 | 28 | 209 | 1.6 | 4.8 | 0.00 | 0.00 | 0.00 | 78 | 999.5 |
| 20260505201117 | 28 | 113 | 3.2 | 4.8 | 0.00 | 0.00 | 0.00 | 78 | 999.4 |
| 20260505201015 | 28 | 56 | 3.2 | 4.8 | 0.00 | 0.00 | 0.00 | 78 | 999.4 |
| 20260505200916 | 28 | 128 | 1.6 | 4.8 | 0.00 | 0.00 | 0.00 | 78 | 999.5 |
| 20260505200816 | 28 | 76 | 0.0 | 4.8 | 0.00 | 0.00 | 0.00 | 78 | 999.5 |
| 20260505200716 | 28 | 276 | 0.0 | 4.8 | 0.00 | 0.00 | 0.00 | 78 | 999.5 |
| 20260505200617 | 28 | 276 | 3.2 | 4.8 | 0.00 | 0.00 | 0.00 | 78 | 999.5 |
| 20260505200515 | 28 | 305 | 3.2 | 4.8 | 0.00 | 0.00 | 0.00 | 78 | 999.5 |
| 20260505200416 | 28 | 254 | 3.2 | 4.8 | 0.00 | 0.00 | 0.00 | 78 | 999.5 |
| 20260505200316 | 28 | 137 | 1.6 | 4.8 | 0.00 | 0.00 | 0.00 | 78 | 999.6 |
| 20260505200216 | 28 | 258 | 1.6 | 4.8 | 0.00 | 0.00 | 0.00 | 79 | 999.6 |
| 20260505200116 | 28 | 124 | 1.6 | 4.8 | 0.00 | 0.00 | 0.00 | 79 | 999.6 |
| 20260505200016 | 28 | 347 | 1.6 | 4.8 | 0.00 | 0.00 | 0.00 | 79 | 999.8 |
| 20260505195917 | 28 | 172 | 0.0 | 4.8 | 0.00 | 0.00 | 0.00 | 79 | 999.8 |
| 20260505195815 | 28 | 165 | 0.0 | 4.8 | 0.00 | 0.00 | 0.00 | 79 | 999.7 |
| 20260505195716 | 28 | 162 | 0.0 | 4.8 | 0.00 | 0.00 | 0.00 | 79 | 999.9 |
| 20260505195617 | 27 | 159 | 0.0 | 4.8 | 0.00 | 0.00 | 0.00 | 79 | 999.8 |
| 20260505195516 | 27 | 159 | 1.6 | 11.3 | 0.00 | 0.00 | 0.00 | 79 | 999.8 |
| 20260505195416 | 27 | 159 | 1.6 | 11.3 | 0.00 | 0.00 | 0.00 | 79 | 999.8 |
| 20260505195316 | 27 | 172 | 1.6 | 11.3 | 0.00 | 0.00 | 0.00 | 79 | 999.9 |
| 20260505195217 | 27 | 204 | 1.6 | 11.3 | 0.00 | 0.00 | 0.00 | 79 | 999.8 |
| 20260505195117 | 27 | 204 | 0.0 | 11.3 | 0.00 | 0.00 | 0.00 | 79 | 999.9 |
| 20260505195015 | 27 | 204 | 1.6 | 11.3 | 0.00 | 0.00 | 0.00 | 79 | 999.9 |
| 20260505194916 | 27 | 204 | 3.2 | 11.3 | 0.00 | 0.00 | 0.00 | 79 | 999.9 |
| 20260505194815 | 27 | 204 | 1.6 | 11.3 | 0.00 | 0.00 | 0.00 | 78 | 999.9 |
| 20260505194717 | 27 | 148 | 3.2 | 11.3 | 0.00 | 0.00 | 0.00 | 78 | 999.9 |
| 20260505194615 | 27 | 152 | 3.2 | 11.3 | 0.00 | 0.00 | 0.00 | 78 | 1000.0 |
| 20260505194518 | 27 | 221 | 1.6 | 6.4 | 0.00 | 0.00 | 0.00 | 78 | 1000.0 |
| 20260505194416 | 27 | 238 | 1.6 | 6.4 | 0.00 | 0.00 | 0.00 | 78 | 999.9 |
| 20260505194315 | 27 | 87 | 1.6 | 3.2 | 0.00 | 0.00 | 0.00 | 78 | 999.9 |
| 20260505194215 | 27 | 87 | 1.6 | 3.2 | 0.00 | 0.00 | 0.00 | 77 | 1000.0 |
| 20260505194115 | 28 | 145 | 1.6 | 3.2 | 0.00 | 0.00 | 0.00 | 77 | 1000.1 |
| 20260505194018 | 28 | 214 | 1.6 | 3.2 | 0.00 | 0.00 | 0.00 | 77 | 1000.0 |
| 20260505193915 | 28 | 245 | 1.6 | 3.2 | 0.00 | 0.00 | 0.00 | 77 | 1000.0 |
| 20260505193815 | 28 | 158 | 1.6 | 8.0 | 0.00 | 0.00 | 0.00 | 78 | 1000.1 |
| 20260505193715 | 28 | 93 | 1.6 | 8.0 | 0.00 | 0.00 | 0.00 | 78 | 1000.1 |
| 20260505193615 | 28 | 96 | 1.6 | 8.0 | 0.00 | 0.00 | 0.00 | 78 | 1000.1 |
| 20260505193515 | 28 | 216 | 0.0 | 8.0 | 0.00 | 0.00 | 0.00 | 78 | 1000.0 |
| 20260505193415 | 28 | 234 | 0.0 | 8.0 | 0.00 | 0.00 | 0.00 | 78 | 1000.0 |
| 20260505193316 | 28 | 104 | 0.0 | 8.0 | 0.00 | 0.00 | 0.00 | 78 | 1000.0 |
| 20260505193215 | 28 | 104 | 1.6 | 8.0 | 0.00 | 0.00 | 0.00 | 78 | 1000.0 |
| 20260505193116 | 27 | 106 | 1.6 | 8.0 | 0.00 | 0.00 | 0.00 | 78 | 1000.0 |
| 20260505193017 | 27 | 106 | 1.6 | 8.0 | 0.00 | 0.00 | 0.00 | 78 | 1000.1 |
| 20260505192916 | 27 | 137 | 1.6 | 8.0 | 0.00 | 0.00 | 0.00 | 78 | 1000.1 |
| 20260505192815 | 27 | 141 | 1.6 | 4.8 | 0.00 | 0.00 | 0.00 | 79 | 1000.1 |
| 20260505192713 | 27 | 185 | 1.6 | 4.8 | 0.00 | 0.00 | 0.00 | 79 | 1000.1 |
| 20260505192605 | 27 | 185 | 1.6 | 4.8 | 0.00 | 0.00 | 0.00 | 79 | 1000.1 |
| 20260505192504 | 27 | 228 | 1.6 | 4.8 | 0.00 | 0.00 | 0.00 | 79 | 1000.0 |
| 20260505192402 | 27 | 199 | 3.2 | 4.8 | 0.00 | 0.00 | 0.00 | 78 | 1000.1 |
| 20260505192305 | 27 | 312 | 3.2 | 4.8 | 0.00 | 0.00 | 0.00 | 79 | 1000.1 |
| 20260505192205 | 27 | 106 | 3.2 | 4.8 | 0.00 | 0.00 | 0.00 | 79 | 1000.0 |
| 20260505192103 | 27 | 144 | 3.2 | 4.8 | 0.00 | 0.00 | 0.00 | 79 | 1000.1 |
| 20260505192004 | 27 | 114 | 1.6 | 4.8 | 0.00 | 0.00 | 0.00 | 79 | 1000.0 |
| 20260505191903 | 27 | 309 | 1.6 | 4.8 | 0.00 | 0.00 | 0.00 | 80 | 1000.0 |
| 20260505191803 | 27 | 329 | 1.6 | 4.8 | 0.00 | 0.00 | 0.00 | 80 | 1000.0 |
| 20260505191703 | 27 | 200 | 1.6 | 4.8 | 0.00 | 0.00 | 0.00 | 80 | 1000.1 |
| 20260505191603 | 27 | 147 | 0.0 | 6.4 | 0.00 | 0.00 | 0.00 | 80 | 1000.1 |
| 20260505191504 | 27 | 147 | 0.0 | 6.4 | 0.00 | 0.00 | 0.00 | 79 | 1000.1 |
| 20260505191402 | 27 | 147 | 0.0 | 6.4 | 0.00 | 0.00 | 0.00 | 79 | 1000.1 |
| 20260505191254 | 27 | 147 | 0.0 | 6.4 | 0.00 | 0.00 | 0.00 | 79 | 1000.0 |
| 20260505191155 | 27 | 68 | 0.0 | 6.4 | 0.00 | 0.00 | 0.00 | 79 | 1000.1 |
| 20260505191045 | 27 | 69 | 0.0 | 6.4 | 0.00 | 0.00 | 0.00 | 79 | 1000.1 |
| 20260505190945 | 27 | 69 | 0.0 | 6.4 | 0.00 | 0.00 | 0.00 | 79 | 1000.1 |
| 20260505190846 | 27 | 71 | 0.0 | 6.4 | 0.00 | 0.00 | 0.00 | 79 | 1000.1 |
| 20260505190742 | 27 | 71 | 3.2 | 8.0 | 0.00 | 0.00 | 0.00 | 79 | 1000.1 |
| 20260505190637 | 27 | 113 | 1.6 | 8.0 | 0.00 | 0.00 | 0.00 | 79 | 1000.2 |
| 20260505190539 | 27 | 223 | 0.0 | 8.0 | 0.00 | 0.00 | 0.00 | 78 | 1000.2 |
| 20260505190433 | 27 | 327 | 0.0 | 8.0 | 0.00 | 0.00 | 0.00 | 78 | 1000.1 |
| 20260505190323 | 27 | 327 | 1.6 | 8.0 | 0.00 | 0.00 | 0.00 | 78 | 1000.1 |
| 20260505190219 | 27 | 327 | 1.6 | 8.0 | 0.00 | 0.00 | 0.00 | 78 | 1000.1 |
| 20260505190116 | 27 | 327 | 1.6 | 8.0 | 0.00 | 0.00 | 0.00 | 79 | 1000.2 |
| 20260505190016 | 27 | 271 | 1.6 | 8.0 | 0.00 | 0.00 | 0.00 | 79 | 1000.1 |
| 20260505185916 | 27 | 235 | 1.6 | 8.0 | 0.00 | 0.00 | 0.00 | 79 | 1000.1 |
| 20260505185816 | 27 | 6 | 1.6 | 8.0 | 0.00 | 0.00 | 0.00 | 79 | 1000.2 |
| 20260505185714 | 27 | 173 | 1.6 | 6.4 | 0.00 | 0.00 | 0.00 | 79 | 1000.2 |
| 20260505185614 | 27 | 147 | 1.6 | 6.4 | 0.00 | 0.00 | 0.00 | 79 | 1000.3 |
| 20260505185515 | 27 | 147 | 1.6 | 6.4 | 0.00 | 0.00 | 0.00 | 79 | 1000.3 |
| 20260505185414 | 27 | 257 | 1.6 | 6.4 | 0.00 | 0.00 | 0.00 | 79 | 1000.3 |
| 20260505185315 | 27 | 329 | 1.6 | 6.4 | 0.00 | 0.00 | 0.00 | 79 | 1000.3 |
| 20260505185215 | 27 | 329 | 3.2 | 6.4 | 0.00 | 0.00 | 0.00 | 79 | 1000.1 |
| 20260505185115 | 27 | 111 | 3.2 | 6.4 | 0.00 | 0.00 | 0.00 | 79 | 1000.3 |
| 20260505185015 | 27 | 210 | 3.2 | 6.4 | 0.00 | 0.00 | 0.00 | 79 | 1000.2 |
| 20260505184915 | 27 | 204 | 1.6 | 8.0 | 0.00 | 0.00 | 0.00 | 79 | 1000.2 |
| 20260505184815 | 27 | 193 | 3.2 | 8.0 | 0.00 | 0.00 | 0.00 | 80 | 1000.3 |
| 20260505184716 | 27 | 203 | 3.2 | 8.0 | 0.00 | 0.00 | 0.00 | 80 | 1000.2 |
| 20260505184613 | 27 | 168 | 3.2 | 8.0 | 0.00 | 0.00 | 0.00 | 80 | 1000.3 |
| 20260505184515 | 27 | 92 | 1.6 | 8.0 | 0.00 | 0.00 | 0.00 | 80 | 1000.2 |
| 20260505184416 | 27 | 183 | 1.6 | 8.0 | 0.00 | 0.00 | 0.00 | 80 | 1000.3 |
| 20260505184315 | 27 | 197 | 1.6 | 8.0 | 0.00 | 0.00 | 0.00 | 80 | 1000.2 |
| 20260505184215 | 27 | 248 | 0.0 | 8.0 | 0.00 | 0.00 | 0.00 | 79 | 1000.2 |
| 20260505184117 | 27 | 248 | 3.2 | 8.0 | 0.00 | 0.00 | 0.00 | 79 | 1000.2 |
| 20260505184017 | 27 | 248 | 3.2 | 8.0 | 0.00 | 0.00 | 0.00 | 79 | 1000.2 |
| 20260505183914 | 27 | 245 | 1.6 | 4.8 | 0.00 | 0.00 | 0.00 | 79 | 1000.3 |
| 20260505183815 | 27 | 251 | 3.2 | 4.8 | 0.00 | 0.00 | 0.00 | 79 | 1000.3 |
| 20260505183715 | 27 | 268 | 1.6 | 4.8 | 0.00 | 0.00 | 0.00 | 79 | 1000.3 |
| 20260505183615 | 27 | 142 | 1.6 | 4.8 | 0.00 | 0.00 | 0.00 | 79 | 1000.3 |
| 20260505183515 | 27 | 228 | 1.6 | 4.8 | 0.00 | 0.00 | 0.00 | 79 | 1000.3 |
| 20260505183414 | 27 | 192 | 1.6 | 4.8 | 0.00 | 0.00 | 0.00 | 79 | 1000.3 |
| 20260505183315 | 27 | 197 | 3.2 | 4.8 | 0.00 | 0.00 | 0.00 | 79 | 1000.4 |
| 20260505183215 | 27 | 212 | 3.2 | 4.8 | 0.00 | 0.00 | 0.00 | 79 | 1000.4 |
| 20260505183114 | 27 | 217 | 3.2 | 4.8 | 0.00 | 0.00 | 0.00 | 79 | 1000.4 |
| 20260505183015 | 27 | 197 | 1.6 | 4.8 | 0.00 | 0.00 | 0.00 | 80 | 1000.4 |
| 20260505182915 | 27 | 76 | 1.6 | 4.8 | 0.00 | 0.00 | 0.00 | 80 | 1000.4 |
| 20260505182814 | 27 | 197 | 1.6 | 4.8 | 0.00 | 0.00 | 0.00 | 80 | 1000.3 |
| 20260505182715 | 27 | 353 | 1.6 | 4.8 | 0.00 | 0.00 | 0.00 | 80 | 1000.3 |
| 20260505182615 | 27 | 241 | 3.2 | 4.8 | 0.00 | 0.00 | 0.00 | 80 | 1000.3 |
| 20260505182515 | 27 | 204 | 1.6 | 4.8 | 0.00 | 0.00 | 0.00 | 80 | 1000.4 |
| 20260505182414 | 27 | 231 | 1.6 | 4.8 | 0.00 | 0.00 | 0.00 | 81 | 1000.4 |
| 20260505182312 | 27 | 237 | 1.6 | 4.8 | 0.00 | 0.00 | 0.00 | 81 | 1000.4 |
| 20260505182211 | 27 | 305 | 3.2 | 4.8 | 0.00 | 0.00 | 0.00 | 81 | 1000.4 |
| 20260505182111 | 27 | 173 | 3.2 | 4.8 | 0.00 | 0.00 | 0.00 | 81 | 1000.4 |
| 20260505182012 | 27 | 99 | 3.2 | 4.8 | 0.00 | 0.00 | 0.00 | 81 | 1000.5 |
| 20260505181907 | 27 | 264 | 1.6 | 4.8 | 0.00 | 0.00 | 0.00 | 81 | 1000.5 |
| 20260505181807 | 26 | 111 | 0.0 | 4.8 | 0.00 | 0.00 | 0.00 | 81 | 1000.5 |
| 20260505181704 | 26 | 355 | 0.0 | 4.8 | 0.00 | 0.00 | 0.00 | 81 | 1000.5 |
| 20260505181603 | 26 | 355 | 0.0 | 4.8 | 0.00 | 0.00 | 0.00 | 81 | 1000.4 |
| 20260505181503 | 26 | 355 | 0.0 | 4.8 | 0.00 | 0.00 | 0.00 | 82 | 1000.5 |
| 20260505181403 | 26 | 255 | 0.0 | 4.8 | 0.00 | 0.00 | 0.00 | 82 | 1000.5 |
| 20260505181302 | 26 | 255 | 0.0 | 4.8 | 0.00 | 0.00 | 0.00 | 81 | 1000.5 |
| 20260505181204 | 26 | 314 | 1.6 | 4.8 | 0.00 | 0.00 | 0.00 | 81 | 1000.5 |
| 20260505181104 | 26 | 173 | 1.6 | 4.8 | 0.00 | 0.00 | 0.00 | 81 | 1000.5 |
| 20260505181003 | 26 | 173 | 1.6 | 4.8 | 0.00 | 0.00 | 0.00 | 81 | 1000.6 |
| 20260505180902 | 26 | 195 | 1.6 | 4.8 | 0.00 | 0.00 | 0.00 | 82 | 1000.6 |
| 20260505180802 | 26 | 147 | 1.6 | 4.8 | 0.00 | 0.00 | 0.00 | 82 | 1000.6 |
| 20260505180703 | 26 | 148 | 1.6 | 3.2 | 0.00 | 0.00 | 0.00 | 82 | 1000.6 |
| 20260505180603 | 26 | 148 | 3.2 | 3.2 | 0.00 | 0.00 | 0.00 | 82 | 1000.6 |
| 20260505180502 | 26 | 142 | 1.6 | 4.8 | 0.00 | 0.00 | 0.00 | 81 | 1000.7 |
| 20260505180403 | 26 | 288 | 0.0 | 4.8 | 0.00 | 0.00 | 0.00 | 81 | 1000.6 |
| 20260505180302 | 26 | 292 | 0.0 | 4.8 | 0.00 | 0.00 | 0.00 | 81 | 1000.7 |
| 20260505180202 | 26 | 217 | 0.0 | 4.8 | 0.00 | 0.00 | 0.00 | 81 | 1000.7 |
| 20260505180104 | 26 | 217 | 1.6 | 4.8 | 0.00 | 0.00 | 0.00 | 81 | 1000.7 |
| 20260505180003 | 26 | 217 | 1.6 | 4.8 | 0.00 | 0.00 | 0.00 | 81 | 1000.7 |
| 20260505175903 | 26 | 320 | 1.6 | 4.8 | 0.00 | 0.00 | 0.00 | 81 | 1000.7 |
| 20260505175803 | 26 | 203 | 1.6 | 4.8 | 0.00 | 0.00 | 0.00 | 81 | 1000.7 |
| 20260505175703 | 26 | 137 | 1.6 | 4.8 | 0.00 | 0.00 | 0.00 | 81 | 1000.7 |
| 20260505175602 | 26 | 345 | 1.6 | 4.8 | 0.00 | 0.00 | 0.00 | 81 | 1000.7 |
| 20260505175504 | 26 | 213 | 1.6 | 4.8 | 0.00 | 0.00 | 0.00 | 81 | 1000.7 |
| 20260505175405 | 26 | 149 | 1.6 | 4.8 | 0.00 | 0.00 | 0.00 | 81 | 1000.7 |
| 20260505175305 | 26 | 234 | 1.6 | 4.8 | 0.00 | 0.00 | 0.00 | 81 | 1000.7 |
| 20260505175203 | 26 | 234 | 3.2 | 4.8 | 0.00 | 0.00 | 0.00 | 81 | 1000.7 |
| 20260505175103 | 26 | 117 | 3.2 | 4.8 | 0.00 | 0.00 | 0.00 | 81 | 1000.7 |
| 20260505175003 | 26 | 42 | 3.2 | 4.8 | 0.00 | 0.00 | 0.00 | 80 | 1000.7 |
| 20260505174902 | 26 | 162 | 3.2 | 4.8 | 0.00 | 0.00 | 0.00 | 80 | 1000.6 |
| 20260505174802 | 26 | 148 | 1.6 | 4.8 | 0.00 | 0.00 | 0.00 | 80 | 1000.6 |
| 20260505174703 | 26 | 282 | 1.6 | 4.8 | 0.00 | 0.00 | 0.00 | 80 | 1000.7 |
| 20260505174602 | 26 | 0 | 1.6 | 4.8 | 0.00 | 0.00 | 0.00 | 80 | 1000.6 |
| 20260505174502 | 26 | 158 | 1.6 | 4.8 | 0.00 | 0.00 | 0.00 | 80 | 1000.7 |
| 20260505174402 | 26 | 164 | 1.6 | 4.8 | 0.00 | 0.00 | 0.00 | 80 | 1000.7 |
| 20260505174302 | 26 | 274 | 1.6 | 4.8 | 0.00 | 0.00 | 0.00 | 80 | 1000.8 |
| 20260505174202 | 26 | 276 | 1.6 | 4.8 | 0.00 | 0.00 | 0.00 | 80 | 1000.8 |
| 20260505174102 | 26 | 158 | 3.2 | 4.8 | 0.00 | 0.00 | 0.00 | 80 | 1000.8 |
| 20260505174004 | 27 | 323 | 1.6 | 6.4 | 0.00 | 0.00 | 0.00 | 80 | 1000.8 |
| 20260505173902 | 27 | 62 | 1.6 | 6.4 | 0.00 | 0.00 | 0.00 | 81 | 1000.8 |
| 20260505173804 | 27 | 192 | 1.6 | 6.4 | 0.00 | 0.00 | 0.00 | 81 | 1000.8 |
| 20260505173702 | 27 | 25 | 1.6 | 6.4 | 0.00 | 0.00 | 0.00 | 81 | 1000.8 |
| 20260505173602 | 27 | 283 | 1.6 | 6.4 | 0.00 | 0.00 | 0.00 | 81 | 1000.8 |
| 20260505173504 | 27 | 283 | 1.6 | 6.4 | 0.00 | 0.00 | 0.00 | 80 | 1000.8 |
| 20260505173403 | 27 | 203 | 3.2 | 6.4 | 0.00 | 0.00 | 0.00 | 81 | 1000.7 |
| 20260505173303 | 27 | 14 | 1.6 | 6.4 | 0.00 | 0.00 | 0.00 | 82 | 1000.8 |
| 20260505173203 | 27 | 176 | 1.6 | 6.4 | 0.00 | 0.00 | 0.00 | 82 | 1000.8 |
| 20260505173103 | 27 | 113 | 1.6 | 6.4 | 0.00 | 0.00 | 0.00 | 82 | 1000.8 |
| 20260505173004 | 26 | 224 | 0.0 | 6.4 | 0.00 | 0.00 | 0.00 | 82 | 1000.8 |
| 20260505172902 | 26 | 224 | 0.0 | 6.4 | 0.00 | 0.00 | 0.00 | 82 | 1000.7 |
| 20260505172803 | 26 | 231 | 0.0 | 6.4 | 0.00 | 0.00 | 0.00 | 82 | 1000.8 |
| 20260505172703 | 26 | 233 | 0.0 | 6.4 | 0.00 | 0.00 | 0.00 | 82 | 1000.8 |
| 20260505172602 | 26 | 250 | 0.0 | 6.4 | 0.00 | 0.00 | 0.00 | 82 | 1000.8 |
| 20260505172502 | 26 | 250 | 0.0 | 6.4 | 0.00 | 0.00 | 0.00 | 82 | 1000.8 |
| 20260505172402 | 26 | 250 | 1.6 | 6.4 | 0.00 | 0.00 | 0.00 | 82 | 1000.8 |
| 20260505172305 | 26 | 241 | 1.6 | 6.4 | 0.00 | 0.00 | 0.00 | 82 | 1000.8 |
| 20260505172203 | 26 | 241 | 3.2 | 6.4 | 0.00 | 0.00 | 0.00 | 82 | 1000.9 |
| 20260505172103 | 26 | 180 | 1.6 | 6.4 | 0.00 | 0.00 | 0.00 | 82 | 1000.8 |
| 20260505172002 | 26 | 299 | 1.6 | 8.0 | 0.00 | 0.00 | 0.00 | 82 | 1000.7 |
| 20260505171902 | 26 | 0 | 1.6 | 8.0 | 0.00 | 0.00 | 0.00 | 82 | 1000.9 |
| 20260505171804 | 26 | 99 | 1.6 | 8.0 | 0.00 | 0.00 | 0.00 | 82 | 1000.9 |
| 20260505171704 | 26 | 114 | 3.2 | 8.0 | 0.00 | 0.00 | 0.00 | 82 | 1000.9 |
| 20260505171603 | 26 | 313 | 1.6 | 8.0 | 0.00 | 0.00 | 0.00 | 82 | 1000.9 |
| 20260505171503 | 26 | 133 | 1.6 | 8.0 | 0.00 | 0.00 | 0.00 | 82 | 1000.7 |
| 20260505171402 | 26 | 137 | 0.0 | 8.0 | 0.00 | 0.00 | 0.00 | 82 | 1000.8 |
| 20260505171304 | 26 | 137 | 1.6 | 8.0 | 0.00 | 0.00 | 0.00 | 81 | 1000.9 |
| 20260505171203 | 26 | 137 | 3.2 | 8.0 | 0.00 | 0.00 | 0.00 | 81 | 1000.8 |
| 20260505171102 | 26 | 124 | 3.2 | 8.0 | 0.00 | 0.00 | 0.00 | 82 | 1000.7 |
| 20260505171003 | 26 | 179 | 3.2 | 6.4 | 0.00 | 0.00 | 0.00 | 82 | 1000.9 |
| 20260505170902 | 26 | 207 | 1.6 | 6.4 | 0.00 | 0.00 | 0.00 | 82 | 1000.8 |
| 20260505170804 | 26 | 214 | 0.0 | 6.4 | 0.00 | 0.00 | 0.00 | 82 | 1000.8 |
| 20260505170702 | 26 | 214 | 0.0 | 6.4 | 0.00 | 0.00 | 0.00 | 82 | 1000.8 |
| 20260505170602 | 26 | 51 | 1.6 | 6.4 | 0.00 | 0.00 | 0.00 | 82 | 1000.8 |
| 20260505170503 | 26 | 59 | 1.6 | 6.4 | 0.00 | 0.00 | 0.00 | 82 | 1000.9 |
| 20260505170403 | 26 | 216 | 1.6 | 6.4 | 0.00 | 0.00 | 0.00 | 82 | 1000.9 |
| 20260505170302 | 26 | 178 | 1.6 | 4.8 | 0.00 | 0.00 | 0.00 | 82 | 1000.9 |
| 20260505170203 | 26 | 111 | 0.0 | 4.8 | 0.00 | 0.00 | 0.00 | 82 | 1001.0 |
| 20260505170003 | 26 | 343 | 0.0 | 8.0 | 0.00 | 0.00 | 0.00 | 83 | 1001.0 |
| 20260505165904 | 26 | 250 | 1.6 | 8.0 | 0.00 | 0.00 | 0.00 | 83 | 1001.0 |
| 20260505165802 | 26 | 250 | 0.0 | 8.0 | 0.00 | 0.00 | 0.00 | 83 | 1001.0 |
| 20260505165702 | 26 | 99 | 0.0 | 8.0 | 0.00 | 0.00 | 0.00 | 83 | 1000.9 |
| 20260505165603 | 26 | 97 | 0.0 | 8.0 | 0.00 | 0.00 | 0.00 | 83 | 1001.0 |
| 20260505165503 | 26 | 99 | 0.0 | 8.0 | 0.00 | 0.00 | 0.00 | 83 | 1000.9 |
| 20260505165402 | 26 | 99 | 0.0 | 8.0 | 0.00 | 0.00 | 0.00 | 83 | 1001.0 |
| 20260505165305 | 26 | 94 | 1.6 | 8.0 | 0.00 | 0.00 | 0.00 | 83 | 1001.0 |
| 20260505165204 | 26 | 114 | 1.6 | 8.0 | 0.00 | 0.00 | 0.00 | 83 | 1001.0 |
| 20260505165102 | 26 | 127 | 1.6 | 8.0 | 0.00 | 0.00 | 0.00 | 83 | 1001.0 |
| 20260505165004 | 26 | 212 | 0.0 | 3.2 | 0.00 | 0.00 | 0.00 | 83 | 1001.0 |
| 20260505164902 | 26 | 154 | 0.0 | 3.2 | 0.00 | 0.00 | 0.00 | 83 | 1001.1 |
| 20260505164803 | 26 | 154 | 0.0 | 3.2 | 0.00 | 0.00 | 0.00 | 83 | 1001.0 |
| 20260505164702 | 25 | 155 | 0.0 | 3.2 | 0.00 | 0.00 | 0.00 | 83 | 1001.0 |
| 20260505164602 | 25 | 155 | 0.0 | 3.2 | 0.00 | 0.00 | 0.00 | 83 | 1001.0 |
| 20260505164503 | 26 | 337 | 0.0 | 3.2 | 0.00 | 0.00 | 0.00 | 83 | 1001.1 |
| 20260505164404 | 26 | 0 | 0.0 | 1.6 | 0.00 | 0.00 | 0.00 | 83 | 1001.1 |
| 20260505164302 | 26 | 0 | 0.0 | 1.6 | 0.00 | 0.00 | 0.00 | 83 | 1001.1 |
| 20260505164205 | 26 | 309 | 0.0 | 1.6 | 0.00 | 0.00 | 0.00 | 83 | 1001.0 |
| 20260505164102 | 25 | 227 | 0.0 | 1.6 | 0.00 | 0.00 | 0.00 | 83 | 1001.0 |
| 20260505164002 | 25 | 227 | 0.0 | 1.6 | 0.00 | 0.00 | 0.00 | 83 | 1001.1 |
| 20260505163902 | 25 | 227 | 0.0 | 1.6 | 0.00 | 0.00 | 0.00 | 83 | 1001.1 |
| 20260505163803 | 25 | 227 | 0.0 | 1.6 | 0.00 | 0.00 | 0.00 | 83 | 1001.1 |
| 20260505163703 | 25 | 227 | 0.0 | 1.6 | 0.00 | 0.00 | 0.00 | 83 | 1001.1 |
| 20260505163602 | 25 | 230 | 0.0 | 1.6 | 0.00 | 0.00 | 0.00 | 84 | 1001.0 |
| 20260505163504 | 25 | 247 | 0.0 | 1.6 | 0.00 | 0.00 | 0.00 | 84 | 1001.1 |
| 20260505163404 | 25 | 247 | 0.0 | 1.6 | 0.00 | 0.00 | 0.00 | 84 | 1001.1 |
| 20260505163302 | 25 | 247 | 0.0 | 1.6 | 0.00 | 0.00 | 0.00 | 84 | 1001.0 |
| 20260505163202 | 25 | 250 | 0.0 | 1.6 | 0.00 | 0.00 | 0.00 | 84 | 1001.1 |
| 20260505163105 | 25 | 250 | 0.0 | 1.6 | 0.00 | 0.00 | 0.00 | 85 | 1001.1 |
| 20260505163001 | 25 | 250 | 0.0 | 1.6 | 0.00 | 0.00 | 0.00 | 85 | 1001.1 |
| 20260505162855 | 25 | 250 | 0.0 | 3.2 | 0.00 | 0.00 | 0.00 | 85 | 1001.1 |
| 20260505162749 | 25 | 250 | 0.0 | 3.2 | 0.00 | 0.00 | 0.00 | 85 | 1001.1 |
| 20260505162650 | 25 | 250 | 0.0 | 3.2 | 0.00 | 0.00 | 0.00 | 85 | 1001.2 |
| 20260505162549 | 25 | 250 | 0.0 | 3.2 | 0.00 | 0.00 | 0.00 | 85 | 1001.1 |
| 20260505162446 | 25 | 159 | 0.0 | 3.2 | 0.00 | 0.00 | 0.00 | 85 | 1001.2 |
| 20260505162347 | 24 | 159 | 0.0 | 3.2 | 0.00 | 0.00 | 0.00 | 86 | 1001.2 |
| 20260505162244 | 24 | 159 | 0.0 | 3.2 | 0.00 | 0.00 | 0.00 | 86 | 1001.2 |
| 20260505162145 | 24 | 127 | 0.0 | 3.2 | 0.00 | 0.00 | 0.00 | 86 | 1001.2 |
| 20260505162044 | 24 | 117 | 1.6 | 3.2 | 0.00 | 0.00 | 0.00 | 86 | 1001.1 |
| 20260505161934 | 24 | 269 | 1.6 | 3.2 | 0.00 | 0.00 | 0.00 | 86 | 1001.2 |
| 20260505161831 | 24 | 21 | 0.0 | 1.6 | 0.00 | 0.00 | 0.00 | 86 | 1001.1 |
| 20260505161731 | 24 | 21 | 0.0 | 1.6 | 0.00 | 0.00 | 0.00 | 86 | 1001.0 |
| 20260505161633 | 24 | 348 | 0.0 | 1.6 | 0.00 | 0.00 | 0.00 | 86 | 1001.1 |
| 20260505161533 | 24 | 348 | 0.0 | 1.6 | 0.00 | 0.00 | 0.00 | 86 | 1001.1 |
| 20260505161425 | 24 | 348 | 0.0 | 3.2 | 0.00 | 0.00 | 0.00 | 86 | 1001.0 |
| 20260505161312 | 24 | 348 | 0.0 | 3.2 | 0.00 | 0.00 | 0.00 | 86 | 1001.1 |
| 20260505161212 | 24 | 348 | 0.0 | 3.2 | 0.00 | 0.00 | 0.00 | 86 | 1001.1 |
| 20260505161111 | 24 | 348 | 0.0 | 3.2 | 0.00 | 0.00 | 0.00 | 86 | 1001.1 |
| 20260505161010 | 24 | 348 | 0.0 | 3.2 | 0.00 | 0.00 | 0.00 | 86 | 1001.1 |
| 20260505160911 | 24 | 348 | 0.0 | 3.2 | 0.00 | 0.00 | 0.00 | 86 | 1001.0 |
| 20260505160812 | 24 | 348 | 0.0 | 3.2 | 0.00 | 0.00 | 0.00 | 86 | 1001.0 |
| 20260505160712 | 24 | 348 | 0.0 | 3.2 | 0.00 | 0.00 | 0.00 | 86 | 1001.0 |
| 20260505160612 | 24 | 0 | 0.0 | 3.2 | 0.00 | 0.00 | 0.00 | 86 | 1001.0 |
| 20260505160512 | 24 | 196 | 1.6 | 3.2 | 0.00 | 0.00 | 0.00 | 86 | 1000.9 |
| 20260505160412 | 24 | 220 | 0.0 | 3.2 | 0.00 | 0.00 | 0.00 | 86 | 1001.0 |
| 20260505160313 | 24 | 210 | 0.0 | 3.2 | 0.00 | 0.00 | 0.00 | 86 | 1001.0 |
| 20260505160210 | 24 | 210 | 0.0 | 3.2 | 0.00 | 0.00 | 0.00 | 86 | 1001.0 |
| 20260505160110 | 24 | 210 | 0.0 | 3.2 | 0.00 | 0.00 | 0.00 | 86 | 1000.9 |
| 20260505153340 | 23 | 279 | 0.0 | 3.2 | 0.00 | 0.00 | 0.00 | 87 | 1000.8 |
| 20260505153241 | 23 | 279 | 0.0 | 3.2 | 0.00 | 0.00 | 0.00 | 87 | 1000.8 |
| 20260505153135 | 23 | 279 | 0.0 | 3.2 | 0.00 | 0.00 | 0.00 | 87 | 1000.9 |
| 20260505153031 | 23 | 327 | 0.0 | 3.2 | 0.00 | 0.00 | 0.00 | 87 | 1000.8 |
| 20260505152932 | 23 | 231 | 0.0 | 3.2 | 0.00 | 0.00 | 0.00 | 87 | 1000.7 |
| 20260505152831 | 23 | 231 | 0.0 | 3.2 | 0.00 | 0.00 | 0.00 | 87 | 1000.8 |
| 20260505152731 | 23 | 231 | 0.0 | 3.2 | 0.00 | 0.00 | 0.00 | 87 | 1000.8 |
| 20260505152631 | 23 | 230 | 0.0 | 3.2 | 0.00 | 0.00 | 0.00 | 87 | 1000.8 |
| 20260505152531 | 23 | 230 | 0.0 | 4.8 | 0.00 | 0.00 | 0.00 | 87 | 1000.7 |
| 20260505152432 | 23 | 241 | 0.0 | 4.8 | 0.00 | 0.00 | 0.00 | 87 | 1000.7 |
| 20260505152332 | 23 | 243 | 0.0 | 4.8 | 0.00 | 0.00 | 0.00 | 87 | 1000.7 |
| 20260505152232 | 23 | 224 | 0.0 | 4.8 | 0.00 | 0.00 | 0.00 | 87 | 1000.7 |
| 20260505152132 | 23 | 224 | 0.0 | 4.8 | 0.00 | 0.00 | 0.00 | 87 | 1000.8 |
| 20260505152031 | 23 | 224 | 0.0 | 4.8 | 0.00 | 0.00 | 0.00 | 87 | 1000.7 |
| 20260505151931 | 23 | 224 | 0.0 | 4.8 | 0.00 | 0.00 | 0.00 | 87 | 1000.7 |
| 20260505151832 | 23 | 118 | 0.0 | 4.8 | 0.00 | 0.00 | 0.00 | 87 | 1000.8 |
| 20260505151732 | 23 | 117 | 0.0 | 4.8 | 0.00 | 0.00 | 0.00 | 87 | 1000.8 |
| 20260505151632 | 23 | 117 | 0.0 | 4.8 | 0.00 | 0.00 | 0.00 | 87 | 1000.8 |
| 20260505151531 | 23 | 63 | 0.0 | 3.2 | 0.00 | 0.00 | 0.00 | 87 | 1000.9 |
| 20260505151426 | 23 | 87 | 0.0 | 3.2 | 0.00 | 0.00 | 0.00 | 87 | 1000.8 |
| 20260505151325 | 23 | 87 | 0.0 | 4.8 | 0.00 | 0.00 | 0.00 | 87 | 1000.9 |
| 20260505151223 | 23 | 251 | 1.6 | 4.8 | 0.00 | 0.00 | 0.00 | 87 | 1000.8 |
| 20260505151120 | 23 | 17 | 0.0 | 4.8 | 0.00 | 0.00 | 0.00 | 88 | 1000.8 |
| 20260505151008 | 23 | 79 | 1.6 | 4.8 | 0.00 | 0.00 | 0.00 | 88 | 1000.8 |
| 20260505150904 | 23 | 0 | 0.0 | 4.8 | 0.00 | 0.00 | 0.00 | 88 | 1000.8 |
| 20260505150803 | 23 | 238 | 0.0 | 4.8 | 0.00 | 0.00 | 0.00 | 88 | 1000.9 |
| 20260505150703 | 23 | 238 | 0.0 | 4.8 | 0.00 | 0.00 | 0.00 | 88 | 1000.8 |
| 20260505150604 | 23 | 238 | 0.0 | 4.8 | 0.00 | 0.00 | 0.00 | 88 | 1000.8 |
| 20260505150504 | 23 | 237 | 0.0 | 4.8 | 0.00 | 0.00 | 0.00 | 88 | 1000.8 |
| 20260505150403 | 23 | 265 | 0.0 | 3.2 | 0.00 | 0.00 | 0.00 | 88 | 1000.8 |
| 20260505150303 | 23 | 274 | 0.0 | 3.2 | 0.00 | 0.00 | 0.00 | 88 | 1000.7 |
| 20260505150203 | 23 | 274 | 0.0 | 3.2 | 0.00 | 0.00 | 0.00 | 88 | 1000.6 |
| 20260505140632 | 22 | 206 | 0.0 | 4.8 | 0.00 | 0.00 | 0.00 | 88 | 1000.6 |
| 20260505140532 | 22 | 206 | 0.0 | 4.8 | 0.00 | 0.00 | 0.00 | 88 | 1000.6 |
| 20260505140432 | 22 | 206 | 0.0 | 4.8 | 0.00 | 0.00 | 0.00 | 88 | 1000.6 |
| 20260505140304 | 22 | 206 | 1.6 | 4.8 | 0.00 | 0.00 | 0.00 | 88 | 1000.5 |
| 20260505140203 | 22 | 206 | 1.6 | 4.8 | 0.00 | 0.00 | 0.00 | 88 | 1000.6 |
| 20260505130301 | 21 | 209 | 0.0 | 3.2 | 0.00 | 0.00 | 0.00 | 88 | 1000.7 |
| 20260505130202 | 21 | 209 | 0.0 | 3.2 | 0.00 | 0.00 | 0.00 | 88 | 1000.6 |
| 20260505125009 | 21 | 44 | 0.0 | 3.2 | 0.00 | 0.00 | 0.00 | 88 | 1000.4 |
| 20260505124903 | 21 | 44 | 0.0 | 3.2 | 0.00 | 0.00 | 0.00 | 88 | 1000.4 |
| 20260505124802 | 21 | 44 | 0.0 | 3.2 | 0.00 | 0.00 | 0.00 | 88 | 1000.4 |
| 20260505124702 | 21 | 44 | 0.0 | 3.2 | 0.00 | 0.00 | 0.00 | 88 | 1000.4 |
| 20260505124602 | 21 | 44 | 0.0 | 3.2 | 0.00 | 0.00 | 0.00 | 88 | 1000.5 |
| 20260505124502 | 21 | 44 | 1.6 | 3.2 | 0.00 | 0.00 | 0.00 | 88 | 1000.3 |
| 20260505124402 | 21 | 44 | 0.0 | 3.2 | 0.00 | 0.00 | 0.00 | 88 | 1000.4 |
| 20260505124302 | 21 | 103 | 0.0 | 3.2 | 0.00 | 0.00 | 0.00 | 88 | 1000.4 |
| 20260505124203 | 21 | 106 | 0.0 | 3.2 | 0.00 | 0.00 | 0.00 | 88 | 1000.3 |
| 20260505124107 | 21 | 106 | 0.0 | 3.2 | 0.00 | 0.00 | 0.00 | 88 | 1000.4 |
| 20260505124003 | 21 | 86 | 0.0 | 3.2 | 0.00 | 0.00 | 0.00 | 88 | 1000.3 |
| 20260505123902 | 21 | 86 | 0.0 | 3.2 | 0.00 | 0.00 | 0.00 | 88 | 1000.1 |
| 20260505123803 | 21 | 86 | 1.6 | 3.2 | 0.00 | 0.00 | 0.00 | 88 | 1000.1 |
| 20260505123702 | 21 | 223 | 1.6 | 3.2 | 0.00 | 0.00 | 0.00 | 88 | 1000.1 |
| 20260505123604 | 21 | 226 | 1.6 | 3.2 | 0.00 | 0.00 | 0.00 | 88 | 1000.0 |
| 20260505123502 | 21 | 248 | 0.0 | 3.2 | 0.00 | 0.00 | 0.00 | 88 | 999.9 |
| 20260505123404 | 21 | 240 | 0.0 | 3.2 | 0.00 | 0.00 | 0.00 | 88 | 999.9 |
| 20260505123304 | 21 | 240 | 0.0 | 3.2 | 0.00 | 0.00 | 0.00 | 88 | 999.8 |
| 20260505123211 | 21 | 240 | 0.0 | 1.6 | 0.00 | 0.00 | 0.00 | 88 | 999.8 |
| 20260505123102 | 21 | 233 | 0.0 | 1.6 | 0.00 | 0.00 | 0.00 | 88 | 999.8 |
| 20260505123002 | 21 | 274 | 0.0 | 1.6 | 0.00 | 0.00 | 0.00 | 88 | 999.8 |
| 20260505122903 | 21 | 272 | 0.0 | 1.6 | 0.00 | 0.00 | 0.00 | 88 | 999.8 |
| 20260505122802 | 21 | 330 | 0.0 | 1.6 | 0.00 | 0.00 | 0.00 | 88 | 999.8 |
| 20260505122704 | 21 | 330 | 0.0 | 1.6 | 0.00 | 0.00 | 0.00 | 88 | 999.8 |
| 20260505122602 | 21 | 330 | 0.0 | 1.6 | 0.00 | 0.00 | 0.00 | 88 | 999.8 |
| 20260505122504 | 21 | 330 | 0.0 | 1.6 | 0.00 | 0.00 | 0.00 | 88 | 999.9 |
| 20260505122402 | 21 | 330 | 0.0 | 1.6 | 0.00 | 0.00 | 0.00 | 88 | 999.9 |
| 20260505122305 | 21 | 330 | 0.0 | 1.6 | 0.00 | 0.00 | 0.00 | 88 | 999.9 |
| 20260505122202 | 21 | 330 | 0.0 | 1.6 | 0.00 | 0.00 | 0.00 | 88 | 999.9 |
| 20260505122102 | 21 | 330 | 0.0 | 1.6 | 0.00 | 0.00 | 0.00 | 88 | 999.9 |
| 20260505122001 | 21 | 330 | 0.0 | 3.2 | 0.00 | 0.00 | 0.00 | 88 | 999.9 |
| 20260505121902 | 21 | 330 | 0.0 | 3.2 | 0.00 | 0.00 | 0.00 | 88 | 1000.0 |
| 20260505121802 | 21 | 262 | 0.0 | 3.2 | 0.00 | 0.00 | 0.00 | 88 | 1000.1 |
| 20260505121704 | 21 | 262 | 0.0 | 3.2 | 0.00 | 0.00 | 0.00 | 88 | 1000.0 |
| 20260505121602 | 21 | 262 | 0.0 | 3.2 | 0.00 | 0.00 | 0.00 | 88 | 1000.0 |
| 20260505121502 | 21 | 262 | 0.0 | 3.2 | 0.00 | 0.00 | 0.00 | 88 | 1000.0 |
| 20260505121402 | 21 | 262 | 0.0 | 3.2 | 0.00 | 0.00 | 0.00 | 87 | 1000.0 |
| 20260505121303 | 21 | 262 | 0.0 | 3.2 | 0.00 | 0.00 | 0.00 | 87 | 999.9 |
| 20260505121202 | 21 | 262 | 0.0 | 3.2 | 0.00 | 0.00 | 0.00 | 87 | 999.9 |
| 20260505121103 | 21 | 262 | 0.0 | 3.2 | 0.00 | 0.00 | 0.00 | 87 | 1000.0 |
| 20260505121004 | 21 | 254 | 0.0 | 1.6 | 0.00 | 0.00 | 0.00 | 87 | 1000.1 |
| 20260505120903 | 21 | 254 | 0.0 | 1.6 | 0.00 | 0.00 | 0.00 | 87 | 1000.1 |
| 20260505120802 | 21 | 254 | 0.0 | 1.6 | 0.00 | 0.00 | 0.00 | 87 | 1000.1 |
| 20260505120659 | 21 | 254 | 0.0 | 1.6 | 0.00 | 0.00 | 0.00 | 87 | 1000.2 |
| 20260505120600 | 21 | 254 | 0.0 | 1.6 | 0.00 | 0.00 | 0.00 | 87 | 1000.1 |
| 20260505120500 | 21 | 254 | 0.0 | 1.6 | 0.00 | 0.00 | 0.00 | 87 | 1000.1 |
| 20260505120407 | 21 | 254 | 0.0 | 1.6 | 0.00 | 0.00 | 0.00 | 87 | 1000.0 |
| 20260505120300 | 21 | 266 | 0.0 | 1.6 | 0.00 | 0.00 | 0.00 | 87 | 999.9 |
| 20260505120201 | 21 | 51 | 0.0 | 1.6 | 0.00 | 0.00 | 0.00 | 87 | 999.8 |
| 20260505120059 | 21 | 51 | 0.0 | 1.6 | 0.00 | 0.00 | 0.00 | 87 | 999.9 |
| 20260505120001 | 21 | 52 | 0.0 | 1.6 | 0.00 | 0.00 | 0.00 | 87 | 999.9 |
| 20260505115859 | 21 | 93 | 0.0 | 1.6 | 0.00 | 0.00 | 0.00 | 87 | 999.9 |
| 20260505115759 | 21 | 94 | 0.0 | 1.6 | 0.00 | 0.00 | 0.00 | 87 | 999.9 |
| 20260505115659 | 21 | 94 | 0.0 | 1.6 | 0.00 | 0.00 | 0.00 | 87 | 999.9 |
| 20260505115601 | 21 | 94 | 0.0 | 1.6 | 0.00 | 0.00 | 0.00 | 87 | 999.9 |
| 20260505115500 | 21 | 94 | 0.0 | 1.6 | 0.00 | 0.00 | 0.00 | 87 | 1000.0 |
| 20260505115359 | 21 | 94 | 0.0 | 1.6 | 0.00 | 0.00 | 0.00 | 87 | 999.9 |
| 20260505115300 | 21 | 94 | 0.0 | 1.6 | 0.00 | 0.00 | 0.00 | 87 | 999.9 |
| 20260505115201 | 21 | 94 | 0.0 | 3.2 | 0.00 | 0.00 | 0.00 | 87 | 999.8 |
| 20260505115101 | 21 | 93 | 0.0 | 3.2 | 0.00 | 0.00 | 0.00 | 87 | 999.7 |
| 20260505115001 | 21 | 234 | 0.0 | 3.2 | 0.00 | 0.00 | 0.00 | 87 | 999.7 |
| 20260505114900 | 21 | 234 | 0.0 | 3.2 | 0.00 | 0.00 | 0.00 | 87 | 999.7 |
| 20260505114801 | 21 | 233 | 0.0 | 3.2 | 0.00 | 0.00 | 0.00 | 87 | 999.7 |
| 20260505114701 | 21 | 233 | 0.0 | 3.2 | 0.00 | 0.00 | 0.00 | 87 | 999.6 |
| 20260505114559 | 21 | 247 | 0.0 | 3.2 | 0.00 | 0.00 | 0.00 | 87 | 999.6 |
| 20260505114500 | 21 | 247 | 0.0 | 3.2 | 0.00 | 0.00 | 0.00 | 87 | 999.7 |
| 20260505114359 | 21 | 247 | 0.0 | 3.2 | 0.00 | 0.00 | 0.00 | 87 | 999.8 |
| 20260505114301 | 21 | 247 | 0.0 | 3.2 | 0.00 | 0.00 | 0.00 | 87 | 999.7 |
| 20260505114201 | 21 | 179 | 0.0 | 0.0 | 0.00 | 0.00 | 0.00 | 87 | 999.7 |
| 20260505114059 | 21 | 179 | 0.0 | 0.0 | 0.00 | 0.00 | 0.00 | 87 | 999.8 |
| 20260505114000 | 21 | 179 | 0.0 | 0.0 | 0.00 | 0.00 | 0.00 | 87 | 999.7 |
| 20260505113908 | 21 | 179 | 0.0 | 0.0 | 0.00 | 0.00 | 0.00 | 87 | 999.8 |
| 20260505113759 | 21 | 179 | 0.0 | 0.0 | 0.00 | 0.00 | 0.00 | 87 | 999.9 |
| 20260505113700 | 21 | 179 | 0.0 | 0.0 | 0.00 | 0.00 | 0.00 | 87 | 999.8 |
| 20260505113559 | 21 | 179 | 0.0 | 0.0 | 0.00 | 0.00 | 0.00 | 87 | 999.7 |
| 20260505113459 | 21 | 179 | 0.0 | 0.0 | 0.00 | 0.00 | 0.00 | 87 | 999.7 |
| 20260505113400 | 21 | 179 | 0.0 | 0.0 | 0.00 | 0.00 | 0.00 | 87 | 999.7 |
| 20260505113301 | 21 | 179 | 0.0 | 0.0 | 0.00 | 0.00 | 0.00 | 87 | 999.6 |
| 20260505113159 | 21 | 179 | 0.0 | 0.0 | 0.00 | 0.00 | 0.00 | 87 | 999.6 |
| 20260505113058 | 21 | 179 | 0.0 | 1.6 | 0.00 | 0.00 | 0.00 | 87 | 999.6 |
| 20260505113002 | 21 | 179 | 0.0 | 1.6 | 0.00 | 0.00 | 0.00 | 87 | 999.6 |
| 20260505112859 | 21 | 179 | 0.0 | 1.6 | 0.00 | 0.00 | 0.00 | 87 | 999.6 |
| 20260505112800 | 21 | 179 | 0.0 | 1.6 | 0.00 | 0.00 | 0.00 | 87 | 999.7 |
| 20260505112653 | 21 | 179 | 0.0 | 1.6 | 0.00 | 0.00 | 0.00 | 87 | 999.7 |
| 20260505112544 | 21 | 179 | 0.0 | 1.6 | 0.00 | 0.00 | 0.00 | 87 | 999.8 |
| 20260505112441 | 21 | 179 | 0.0 | 1.6 | 0.00 | 0.00 | 0.00 | 87 | 999.8 |
| 20260505112342 | 21 | 179 | 0.0 | 1.6 | 0.00 | 0.00 | 0.00 | 87 | 999.9 |
| 20260505112233 | 21 | 179 | 0.0 | 1.6 | 0.00 | 0.00 | 0.00 | 87 | 999.9 |
| 20260505112135 | 21 | 179 | 0.0 | 1.6 | 0.00 | 0.00 | 0.00 | 87 | 999.9 |
| 20260505112033 | 21 | 179 | 0.0 | 1.6 | 0.00 | 0.00 | 0.00 | 87 | 1000.0 |
| 20260505111931 | 21 | 179 | 0.0 | 1.6 | 0.00 | 0.00 | 0.00 | 87 | 1000.0 |
| 20260505111831 | 21 | 179 | 0.0 | 1.6 | 0.00 | 0.00 | 0.00 | 87 | 1000.0 |
| 20260505111733 | 21 | 179 | 0.0 | 1.6 | 0.00 | 0.00 | 0.00 | 87 | 1000.0 |
| 20260505111633 | 21 | 179 | 0.0 | 1.6 | 0.00 | 0.00 | 0.00 | 87 | 999.9 |
| 20260505111532 | 21 | 179 | 0.0 | 1.6 | 0.00 | 0.00 | 0.00 | 87 | 999.9 |
| 20260505111431 | 21 | 179 | 0.0 | 1.6 | 0.00 | 0.00 | 0.00 | 87 | 999.9 |
| 20260505111331 | 21 | 179 | 0.0 | 1.6 | 0.00 | 0.00 | 0.00 | 87 | 999.9 |
| 20260505111236 | 21 | 179 | 0.0 | 0.0 | 0.00 | 0.00 | 0.00 | 87 | 999.8 |
| 20260505111133 | 21 | 179 | 0.0 | 1.6 | 0.00 | 0.00 | 0.00 | 87 | 999.9 |
| 20260505111033 | 21 | 179 | 0.0 | 1.6 | 0.00 | 0.00 | 0.00 | 87 | 999.9 |
| 20260505110932 | 21 | 179 | 0.0 | 1.6 | 0.00 | 0.00 | 0.00 | 87 | 999.9 |
| 20260505110831 | 21 | 179 | 0.0 | 1.6 | 0.00 | 0.00 | 0.00 | 87 | 999.9 |
| 20260505110732 | 21 | 179 | 0.0 | 1.6 | 0.00 | 0.00 | 0.00 | 87 | 999.9 |
| 20260505110630 | 21 | 179 | 0.0 | 1.6 | 0.00 | 0.00 | 0.00 | 87 | 999.9 |
| 20260505110529 | 21 | 179 | 0.0 | 1.6 | 0.00 | 0.00 | 0.00 | 87 | 999.8 |
| 20260505110422 | 21 | 179 | 0.0 | 1.6 | 0.00 | 0.00 | 0.00 | 87 | 999.8 |
| 20260505110323 | 21 | 179 | 0.0 | 1.6 | 0.00 | 0.00 | 0.00 | 87 | 999.8 |
| 20260505110211 | 21 | 179 | 0.0 | 1.6 | 0.00 | 0.00 | 0.00 | 87 | 999.7 |
| 20260505102157 | 20 | 238 | 0.0 | 0.0 | 0.00 | 0.00 | 0.00 | 87 | 999.8 |
| 20260505102059 | 20 | 238 | 0.0 | 0.0 | 0.00 | 0.00 | 0.00 | 87 | 999.9 |
| 20260505101958 | 20 | 238 | 0.0 | 0.0 | 0.00 | 0.00 | 0.00 | 87 | 1000.0 |
| 20260505101858 | 20 | 238 | 0.0 | 0.0 | 0.00 | 0.00 | 0.00 | 87 | 999.9 |
| 20260505101757 | 20 | 238 | 0.0 | 0.0 | 0.00 | 0.00 | 0.00 | 87 | 1000.0 |
| 20260505101657 | 20 | 238 | 0.0 | 0.0 | 0.00 | 0.00 | 0.00 | 86 | 1000.0 |
| 20260505101558 | 20 | 238 | 0.0 | 1.6 | 0.00 | 0.00 | 0.00 | 86 | 1000.0 |
| 20260505101459 | 20 | 238 | 0.0 | 1.6 | 0.00 | 0.00 | 0.00 | 86 | 999.9 |
| 20260505101358 | 20 | 238 | 0.0 | 1.6 | 0.00 | 0.00 | 0.00 | 86 | 999.9 |
| 20260505101257 | 20 | 238 | 0.0 | 1.6 | 0.00 | 0.00 | 0.00 | 86 | 999.9 |
| 20260505101158 | 20 | 238 | 0.0 | 1.6 | 0.00 | 0.00 | 0.00 | 86 | 1000.0 |
| 20260505101059 | 20 | 238 | 0.0 | 1.6 | 0.00 | 0.00 | 0.00 | 86 | 1000.0 |
| 20260505101000 | 20 | 238 | 0.0 | 1.6 | 0.00 | 0.00 | 0.00 | 86 | 999.9 |
| 20260505100857 | 20 | 238 | 0.0 | 1.6 | 0.00 | 0.00 | 0.00 | 86 | 999.9 |
| 20260505100757 | 20 | 238 | 0.0 | 1.6 | 0.00 | 0.00 | 0.00 | 86 | 999.9 |
| 20260505100658 | 20 | 238 | 0.0 | 1.6 | 0.00 | 0.00 | 0.00 | 86 | 999.8 |
| 20260505100557 | 20 | 238 | 0.0 | 1.6 | 0.00 | 0.00 | 0.00 | 86 | 999.8 |
| 20260505100457 | 20 | 309 | 0.0 | 1.6 | 0.00 | 0.00 | 0.00 | 86 | 999.8 |
| 20260505100358 | 20 | 309 | 0.0 | 1.6 | 0.00 | 0.00 | 0.00 | 86 | 999.8 |
| 20260505100257 | 20 | 309 | 0.0 | 1.6 | 0.00 | 0.00 | 0.00 | 86 | 999.8 |
| 20260505100159 | 20 | 309 | 0.0 | 1.6 | 0.00 | 0.00 | 0.00 | 86 | 999.8 |
| 20260505100058 | 20 | 309 | 0.0 | 1.6 | 0.00 | 0.00 | 0.00 | 86 | 999.8 |
| 20260505095957 | 20 | 317 | 0.0 | 1.6 | 0.00 | 0.00 | 0.00 | 86 | 999.8 |
| 20260505095857 | 20 | 317 | 0.0 | 1.6 | 0.00 | 0.00 | 0.00 | 86 | 999.7 |
| 20260505095758 | 20 | 317 | 0.0 | 1.6 | 0.00 | 0.00 | 0.00 | 86 | 999.7 |
| 20260505095658 | 20 | 317 | 0.0 | 1.6 | 0.00 | 0.00 | 0.00 | 86 | 999.8 |
| 20260505095557 | 20 | 317 | 0.0 | 1.6 | 0.00 | 0.00 | 0.00 | 86 | 999.7 |
| 20260505095458 | 20 | 317 | 0.0 | 1.6 | 0.00 | 0.00 | 0.00 | 86 | 999.8 |
| 20260505095358 | 20 | 317 | 0.0 | 1.6 | 0.00 | 0.00 | 0.00 | 86 | 999.8 |
| 20260505095258 | 20 | 317 | 0.0 | 1.6 | 0.00 | 0.00 | 0.00 | 86 | 999.8 |
| 20260505095200 | 20 | 317 | 0.0 | 1.6 | 0.00 | 0.00 | 0.00 | 86 | 999.8 |
| 20260505095058 | 20 | 317 | 0.0 | 1.6 | 0.00 | 0.00 | 0.00 | 86 | 999.8 |
| 20260505094956 | 20 | 317 | 0.0 | 1.6 | 0.00 | 0.00 | 0.00 | 86 | 999.9 |
| 20260505094858 | 20 | 317 | 0.0 | 1.6 | 0.00 | 0.00 | 0.00 | 86 | 999.9 |
| 20260505094757 | 20 | 317 | 0.0 | 1.6 | 0.00 | 0.00 | 0.00 | 86 | 999.9 |
| 20260505094656 | 20 | 317 | 0.0 | 1.6 | 0.00 | 0.00 | 0.00 | 86 | 999.9 |
| 20260505094558 | 20 | 317 | 0.0 | 1.6 | 0.00 | 0.00 | 0.00 | 86 | 999.9 |
| 20260505094457 | 20 | 317 | 0.0 | 1.6 | 0.00 | 0.00 | 0.00 | 86 | 999.9 |
| 20260505094357 | 20 | 317 | 0.0 | 1.6 | 0.00 | 0.00 | 0.00 | 86 | 1000.0 |
| 20260505094310 | 20 | 317 | 0.0 | 1.6 | 0.00 | 0.00 | 0.00 | 86 | 1000.0 |
| 20260505094157 | 20 | 317 | 0.0 | 1.6 | 0.00 | 0.00 | 0.00 | 86 | 1000.0 |
| 20260505094057 | 20 | 317 | 0.0 | 1.6 | 0.00 | 0.00 | 0.00 | 86 | 1000.0 |
| 20260505093957 | 20 | 317 | 0.0 | 1.6 | 0.00 | 0.00 | 0.00 | 86 | 1000.0 |
| 20260505093858 | 20 | 317 | 0.0 | 1.6 | 0.00 | 0.00 | 0.00 | 86 | 1000.1 |
| 20260505093756 | 20 | 317 | 0.0 | 1.6 | 0.00 | 0.00 | 0.00 | 86 | 1000.0 |
| 20260505093654 | 20 | 317 | 0.0 | 1.6 | 0.00 | 0.00 | 0.00 | 86 | 1000.0 |
| 20260505093556 | 20 | 317 | 0.0 | 1.6 | 0.00 | 0.00 | 0.00 | 86 | 1000.0 |
| 20260505093443 | 20 | 317 | 0.0 | 1.6 | 0.00 | 0.00 | 0.00 | 86 | 1000.0 |
| 20260505093343 | 20 | 317 | 0.0 | 1.6 | 0.00 | 0.00 | 0.00 | 86 | 1000.0 |
| 20260505093243 | 20 | 317 | 0.0 | 1.6 | 0.00 | 0.00 | 0.00 | 86 | 999.9 |
| 20260505093141 | 20 | 317 | 0.0 | 1.6 | 0.00 | 0.00 | 0.00 | 86 | 1000.0 |
| 20260505093038 | 20 | 317 | 0.0 | 1.6 | 0.00 | 0.00 | 0.00 | 86 | 1000.0 |
| 20260505092931 | 20 | 317 | 0.0 | 1.6 | 0.00 | 0.00 | 0.00 | 86 | 1000.0 |